| time (UTC) | temp C | wind direction | speed KPH | gust KPH | rain 1hr cm | rain 24hr cm | rain mn cm | humidity % | barometer mb |
| 20260506051332 | 13 | 360 | 17.7 | 48.3 | 0.00 | 0.00 | 0.00 | 30 | 1015.6 |
| 20260506051222 | 13 | 242 | 19.3 | 48.3 | 0.00 | 0.00 | 0.00 | 30 | 1015.6 |
| 20260506051117 | 13 | 235 | 19.3 | 48.3 | 0.00 | 0.00 | 0.00 | 30 | 1015.6 |
| 20260506051029 | 13 | 360 | 19.3 | 48.3 | 0.00 | 0.00 | 0.00 | 30 | 1015.6 |
| 20260506050925 | 13 | 262 | 25.7 | 49.9 | 0.00 | 0.00 | 0.00 | 29 | 1015.6 |
| 20260506050844 | 13 | 360 | 27.4 | 49.9 | 0.00 | 0.00 | 0.00 | 30 | 1015.6 |
| 20260506050740 | 13 | 237 | 24.1 | 49.9 | 0.00 | 0.00 | 0.00 | 30 | 1015.6 |
| 20260506050636 | 13 | 360 | 22.5 | 49.9 | 0.00 | 0.00 | 0.00 | 30 | 1015.6 |
| 20260506050519 | 13 | 224 | 20.9 | 49.9 | 0.00 | 0.00 | 0.00 | 30 | 1015.6 |
| 20260506050429 | 13 | 229 | 19.3 | 49.9 | 0.00 | 0.00 | 0.00 | 30 | 1015.6 |
| 20260506050342 | 13 | 200 | 17.7 | 49.9 | 0.00 | 0.00 | 0.00 | 30 | 1015.6 |
| 20260506050221 | 13 | 360 | 24.1 | 49.9 | 0.00 | 0.00 | 0.00 | 30 | 1015.6 |
| 20260506050141 | 13 | 360 | 27.4 | 49.9 | 0.00 | 0.00 | 0.00 | 30 | 1015.6 |
| 20260506045114 | 13 | 360 | 22.5 | 45.1 | 0.00 | 0.00 | 0.00 | 31 | 1015.6 |
| 20260506045024 | 13 | 245 | 24.1 | 45.1 | 0.00 | 0.00 | 0.00 | 31 | 1015.6 |
| 20260506044933 | 13 | 257 | 29.0 | 43.5 | 0.00 | 0.00 | 0.00 | 31 | 1015.6 |
| 20260506044829 | 13 | 360 | 27.4 | 43.5 | 0.00 | 0.00 | 0.00 | 31 | 1015.6 |
| 20260506044732 | 13 | 360 | 27.4 | 43.5 | 0.00 | 0.00 | 0.00 | 31 | 1015.6 |
| 20260506044639 | 13 | 360 | 27.4 | 43.5 | 0.00 | 0.00 | 0.00 | 31 | 1015.6 |
| 20260506044518 | 13 | 360 | 20.9 | 43.5 | 0.00 | 0.00 | 0.00 | 31 | 1015.6 |
| 20260506044428 | 13 | 267 | 17.7 | 35.4 | 0.00 | 0.00 | 0.00 | 32 | 1015.6 |
| 20260506044319 | 13 | 360 | 19.3 | 35.4 | 0.00 | 0.00 | 0.00 | 32 | 1015.6 |
| 20260506044215 | 13 | 360 | 19.3 | 35.4 | 0.00 | 0.00 | 0.00 | 32 | 1015.6 |
| 20260506044126 | 13 | 252 | 20.9 | 35.4 | 0.00 | 0.00 | 0.00 | 31 | 1015.6 |
| 20260506044038 | 13 | 360 | 25.7 | 35.4 | 0.00 | 0.00 | 0.00 | 31 | 1015.6 |
| 20260506043924 | 13 | 360 | 25.7 | 35.4 | 0.00 | 0.00 | 0.00 | 31 | 1015.6 |
| 20260506043820 | 13 | 238 | 29.0 | 35.4 | 0.00 | 0.00 | 0.00 | 31 | 1015.6 |
| 20260506043729 | 13 | 225 | 24.1 | 35.4 | 0.00 | 0.00 | 0.00 | 32 | 1015.6 |
| 20260506043623 | 13 | 360 | 20.9 | 35.4 | 0.00 | 0.00 | 0.00 | 32 | 1015.6 |
| 20260506043533 | 13 | 360 | 19.3 | 35.4 | 0.00 | 0.00 | 0.00 | 32 | 1015.6 |
| 20260506043432 | 13 | 256 | 19.3 | 35.4 | 0.00 | 0.00 | 0.00 | 32 | 1015.6 |
| 20260506043322 | 13 | 360 | 19.3 | 40.2 | 0.00 | 0.00 | 0.00 | 32 | 1015.6 |
| 20260506043222 | 13 | 248 | 20.9 | 40.2 | 0.00 | 0.00 | 0.00 | 32 | 1015.6 |
| 20260506043136 | 13 | 234 | 24.1 | 40.2 | 0.00 | 0.00 | 0.00 | 32 | 1015.6 |
| 20260506043018 | 13 | 360 | 22.5 | 40.2 | 0.00 | 0.00 | 0.00 | 32 | 1015.6 |
| 20260506042928 | 13 | 360 | 19.3 | 40.2 | 0.00 | 0.00 | 0.00 | 32 | 1015.6 |
| 20260506042838 | 13 | 360 | 19.3 | 40.2 | 0.00 | 0.00 | 0.00 | 33 | 1015.6 |
| 20260506042734 | 13 | 254 | 20.9 | 40.2 | 0.00 | 0.00 | 0.00 | 32 | 1015.6 |
| 20260506042616 | 13 | 360 | 22.5 | 40.2 | 0.00 | 0.00 | 0.00 | 33 | 1015.6 |
| 20260506042516 | 13 | 360 | 24.1 | 40.2 | 0.00 | 0.00 | 0.00 | 33 | 1015.6 |
| 20260506042446 | 13 | 360 | 20.9 | 35.4 | 0.00 | 0.00 | 0.00 | 33 | 1015.6 |
| 20260506042322 | 13 | 360 | 22.5 | 35.4 | 0.00 | 0.00 | 0.00 | 33 | 1015.6 |
| 20260506042218 | 13 | 360 | 22.5 | 35.4 | 0.00 | 0.00 | 0.00 | 33 | 1015.6 |
| 20260506042114 | 13 | 224 | 24.1 | 35.4 | 0.00 | 0.00 | 0.00 | 33 | 1015.6 |
| 20260506042026 | 13 | 360 | 24.1 | 35.4 | 0.00 | 0.00 | 0.00 | 33 | 1015.6 |
| 20260506041920 | 13 | 205 | 20.9 | 35.4 | 0.00 | 0.00 | 0.00 | 33 | 1015.6 |
| 20260506041830 | 13 | 360 | 19.3 | 33.8 | 0.00 | 0.00 | 0.00 | 34 | 1015.6 |
| 20260506041720 | 13 | 249 | 20.9 | 33.8 | 0.00 | 0.00 | 0.00 | 34 | 1015.6 |
| 20260506041633 | 13 | 223 | 22.5 | 33.8 | 0.00 | 0.00 | 0.00 | 34 | 1015.6 |
| 20260506041518 | 13 | 210 | 19.3 | 32.2 | 0.00 | 0.00 | 0.00 | 34 | 1015.4 |
| 20260506041428 | 13 | 250 | 17.7 | 32.2 | 0.00 | 0.00 | 0.00 | 35 | 1015.4 |
| 20260506041322 | 13 | 360 | 20.9 | 30.6 | 0.00 | 0.00 | 0.00 | 35 | 1015.4 |
| 20260506041215 | 13 | 360 | 20.9 | 30.6 | 0.00 | 0.00 | 0.00 | 36 | 1015.4 |
| 20260506041125 | 13 | 360 | 19.3 | 30.6 | 0.00 | 0.00 | 0.00 | 36 | 1015.4 |
| 20260506041015 | 13 | 240 | 19.3 | 37.0 | 0.00 | 0.00 | 0.00 | 36 | 1015.4 |
| 20260506040928 | 13 | 230 | 17.7 | 37.0 | 0.00 | 0.00 | 0.00 | 36 | 1015.4 |
| 20260506040822 | 13 | 360 | 16.1 | 37.0 | 0.00 | 0.00 | 0.00 | 36 | 1015.4 |
| 20260506040718 | 13 | 243 | 16.1 | 37.0 | 0.00 | 0.00 | 0.00 | 36 | 1015.4 |
| 20260506040631 | 13 | 360 | 16.1 | 37.0 | 0.00 | 0.00 | 0.00 | 37 | 1015.4 |
| 20260506040530 | 13 | 360 | 16.1 | 37.0 | 0.00 | 0.00 | 0.00 | 37 | 1015.4 |
| 20260506040420 | 13 | 239 | 19.3 | 37.0 | 0.00 | 0.00 | 0.00 | 36 | 1015.4 |
| 20260506040316 | 13 | 360 | 22.5 | 37.0 | 0.00 | 0.00 | 0.00 | 37 | 1015.4 |
| 20260506040230 | 13 | 227 | 24.1 | 37.0 | 0.00 | 0.00 | 0.00 | 37 | 1015.4 |
| 20260506040139 | 13 | 360 | 24.1 | 37.0 | 0.00 | 0.00 | 0.00 | 36 | 1015.4 |
| 20260506040017 | 13 | 227 | 19.3 | 33.8 | 0.00 | 0.00 | 0.00 | 36 | 1015.2 |
| 20260506035928 | 13 | 246 | 17.7 | 32.2 | 0.00 | 0.00 | 0.00 | 37 | 1015.2 |
| 20260506035827 | 13 | 360 | 17.7 | 32.2 | 0.00 | 0.00 | 0.00 | 37 | 1015.2 |
| 20260506035736 | 13 | 360 | 20.9 | 37.0 | 0.00 | 0.00 | 0.00 | 37 | 1015.2 |
| 20260506035616 | 13 | 360 | 22.5 | 37.0 | 0.00 | 0.00 | 0.00 | 37 | 1015.2 |
| 20260506035526 | 13 | 360 | 22.5 | 37.0 | 0.00 | 0.00 | 0.00 | 37 | 1015.2 |
| 20260506035416 | 13 | 360 | 19.3 | 37.0 | 0.00 | 0.00 | 0.00 | 36 | 1015.2 |
| 20260506035326 | 13 | 360 | 19.3 | 37.0 | 0.00 | 0.00 | 0.00 | 36 | 1015.2 |
| 20260506035216 | 13 | 360 | 20.9 | 37.0 | 0.00 | 0.00 | 0.00 | 36 | 1015.2 |
| 20260506035113 | 13 | 360 | 22.5 | 37.0 | 0.00 | 0.00 | 0.00 | 36 | 1015.2 |
| 20260506035023 | 13 | 360 | 24.1 | 37.0 | 0.00 | 0.00 | 0.00 | 36 | 1015.2 |
| 20260506034916 | 13 | 264 | 22.5 | 37.0 | 0.00 | 0.00 | 0.00 | 37 | 1015.2 |
| 20260506034832 | 13 | 263 | 20.9 | 37.0 | 0.00 | 0.00 | 0.00 | 37 | 1015.2 |
| 20260506034713 | 13 | 227 | 16.1 | 30.6 | 0.00 | 0.00 | 0.00 | 37 | 1015.2 |
| 20260506034626 | 13 | 234 | 17.7 | 30.6 | 0.00 | 0.00 | 0.00 | 37 | 1015.2 |
| 20260506034525 | 13 | 360 | 22.5 | 30.6 | 0.00 | 0.00 | 0.00 | 37 | 1015.1 |
| 20260506034435 | 13 | 225 | 24.1 | 30.6 | 0.00 | 0.00 | 0.00 | 38 | 1015.1 |
| 20260506034331 | 13 | 360 | 22.5 | 32.2 | 0.00 | 0.00 | 0.00 | 38 | 1015.1 |
| 20260506034221 | 13 | 360 | 20.9 | 40.2 | 0.00 | 0.00 | 0.00 | 39 | 1015.1 |
| 20260506034115 | 13 | 360 | 20.9 | 40.2 | 0.00 | 0.00 | 0.00 | 39 | 1015.1 |
| 20260506034025 | 13 | 360 | 20.9 | 40.2 | 0.00 | 0.00 | 0.00 | 39 | 1015.1 |
| 20260506033915 | 13 | 246 | 20.9 | 40.2 | 0.00 | 0.00 | 0.00 | 39 | 1015.1 |
| 20260506033828 | 13 | 360 | 19.3 | 40.2 | 0.00 | 0.00 | 0.00 | 39 | 1015.1 |
| 20260506033737 | 13 | 262 | 19.3 | 40.2 | 0.00 | 0.00 | 0.00 | 39 | 1015.1 |
| 20260506033620 | 13 | 360 | 20.9 | 40.2 | 0.00 | 0.00 | 0.00 | 39 | 1015.1 |
| 20260506033513 | 13 | 245 | 20.9 | 40.2 | 0.00 | 0.00 | 0.00 | 39 | 1015.1 |
| 20260506033430 | 13 | 285 | 20.9 | 40.2 | 0.00 | 0.00 | 0.00 | 39 | 1015.1 |
| 20260506033319 | 13 | 360 | 20.9 | 33.8 | 0.00 | 0.00 | 0.00 | 40 | 1015.1 |
| 20260506033219 | 13 | 360 | 22.5 | 33.8 | 0.00 | 0.00 | 0.00 | 40 | 1015.1 |
| 20260506033132 | 13 | 360 | 20.9 | 33.8 | 0.00 | 0.00 | 0.00 | 40 | 1015.1 |
| 20260506033015 | 13 | 360 | 20.9 | 33.8 | 0.00 | 0.00 | 0.00 | 40 | 1015.0 |
| 20260506032925 | 13 | 221 | 20.9 | 33.8 | 0.00 | 0.00 | 0.00 | 40 | 1015.0 |
| 20260506032818 | 13 | 219 | 22.5 | 37.0 | 0.00 | 0.00 | 0.00 | 40 | 1015.0 |
| 20260506032728 | 13 | 360 | 22.5 | 37.0 | 0.00 | 0.00 | 0.00 | 40 | 1015.0 |
| 20260506032618 | 13 | 232 | 20.9 | 37.0 | 0.00 | 0.00 | 0.00 | 40 | 1015.0 |
| 20260506032528 | 13 | 265 | 19.3 | 37.0 | 0.00 | 0.00 | 0.00 | 40 | 1015.0 |
| 20260506032442 | 13 | 237 | 17.7 | 37.0 | 0.00 | 0.00 | 0.00 | 40 | 1015.0 |
| 20260506032321 | 13 | 235 | 16.1 | 37.0 | 0.00 | 0.00 | 0.00 | 40 | 1015.0 |
| 20260506032231 | 13 | 360 | 20.9 | 37.0 | 0.00 | 0.00 | 0.00 | 40 | 1015.0 |
| 20260506032133 | 13 | 273 | 24.1 | 37.0 | 0.00 | 0.00 | 0.00 | 40 | 1015.0 |
| 20260506032023 | 13 | 360 | 27.4 | 37.0 | 0.00 | 0.00 | 0.00 | 40 | 1015.0 |
| 20260506031919 | 13 | 360 | 22.5 | 35.4 | 0.00 | 0.00 | 0.00 | 40 | 1015.0 |
| 20260506031832 | 13 | 360 | 19.3 | 35.4 | 0.00 | 0.00 | 0.00 | 40 | 1015.0 |
| 20260506031714 | 13 | 254 | 17.7 | 35.4 | 0.00 | 0.00 | 0.00 | 40 | 1015.0 |
| 20260506031624 | 13 | 228 | 17.7 | 35.4 | 0.00 | 0.00 | 0.00 | 40 | 1015.0 |
| 20260506031545 | 13 | 360 | 17.7 | 35.4 | 0.00 | 0.00 | 0.00 | 40 | 1015.0 |
| 20260506031422 | 13 | 231 | 22.5 | 35.4 | 0.00 | 0.00 | 0.00 | 40 | 1015.0 |
| 20260506031321 | 13 | 360 | 22.5 | 35.4 | 0.00 | 0.00 | 0.00 | 40 | 1015.0 |
| 20260506031231 | 13 | 360 | 20.9 | 30.6 | 0.00 | 0.00 | 0.00 | 40 | 1015.0 |
| 20260506031127 | 13 | 211 | 20.9 | 35.4 | 0.00 | 0.00 | 0.00 | 40 | 1015.0 |
| 20260506031017 | 13 | 360 | 20.9 | 35.4 | 0.00 | 0.00 | 0.00 | 40 | 1015.0 |
| 20260506030927 | 13 | 360 | 16.1 | 35.4 | 0.00 | 0.00 | 0.00 | 40 | 1015.0 |
| 20260506030826 | 13 | 360 | 16.1 | 35.4 | 0.00 | 0.00 | 0.00 | 40 | 1015.0 |
| 20260506030720 | 13 | 360 | 16.1 | 35.4 | 0.00 | 0.00 | 0.00 | 40 | 1015.0 |
| 20260506030630 | 13 | 242 | 16.1 | 35.4 | 0.00 | 0.00 | 0.00 | 40 | 1015.0 |
| 20260506030526 | 13 | 360 | 17.7 | 35.4 | 0.00 | 0.00 | 0.00 | 40 | 1015.0 |
| 20260506030416 | 13 | 232 | 22.5 | 35.4 | 0.00 | 0.00 | 0.00 | 40 | 1015.0 |
| 20260506030329 | 13 | 246 | 25.7 | 35.4 | 0.00 | 0.00 | 0.00 | 40 | 1015.0 |
| 20260506030219 | 13 | 360 | 22.5 | 35.4 | 0.00 | 0.00 | 0.00 | 40 | 1015.0 |
| 20260506030127 | 13 | 360 | 22.5 | 35.4 | 0.00 | 0.00 | 0.00 | 40 | 1015.0 |
| 20260506030029 | 13 | 251 | 22.5 | 35.4 | 0.00 | 0.00 | 0.00 | 40 | 1014.9 |
| 20260506025945 | 13 | 360 | 19.3 | 30.6 | 0.00 | 0.00 | 0.00 | 40 | 1014.9 |
| 20260506025820 | 13 | 360 | 14.5 | 27.4 | 0.00 | 0.00 | 0.00 | 40 | 1014.9 |
| 20260506025731 | 14 | 258 | 14.5 | 30.6 | 0.00 | 0.00 | 0.00 | 40 | 1014.9 |
| 20260506025625 | 14 | 245 | 17.7 | 30.6 | 0.00 | 0.00 | 0.00 | 40 | 1014.9 |
| 20260506025517 | 14 | 240 | 16.1 | 30.6 | 0.00 | 0.00 | 0.00 | 39 | 1014.9 |
| 20260506025427 | 14 | 360 | 12.9 | 32.2 | 0.00 | 0.00 | 0.00 | 39 | 1014.9 |
| 20260506025330 | 14 | 360 | 16.1 | 32.2 | 0.00 | 0.00 | 0.00 | 39 | 1014.9 |
| 20260506025219 | 14 | 360 | 17.7 | 32.2 | 0.00 | 0.00 | 0.00 | 39 | 1014.9 |
| 20260506025116 | 14 | 254 | 16.1 | 32.2 | 0.00 | 0.00 | 0.00 | 39 | 1014.9 |
| 20260506025029 | 14 | 360 | 14.5 | 32.2 | 0.00 | 0.00 | 0.00 | 39 | 1014.9 |
| 20260506024919 | 14 | 360 | 14.5 | 32.2 | 0.00 | 0.00 | 0.00 | 39 | 1014.9 |
| 20260506024832 | 14 | 221 | 12.9 | 38.6 | 0.00 | 0.00 | 0.00 | 39 | 1014.9 |
| 20260506024713 | 14 | 280 | 20.9 | 38.6 | 0.00 | 0.00 | 0.00 | 39 | 1014.9 |
| 20260506024622 | 14 | 260 | 20.9 | 38.6 | 0.00 | 0.00 | 0.00 | 39 | 1014.9 |
| 20260506024528 | 14 | 360 | 17.7 | 38.6 | 0.00 | 0.00 | 0.00 | 39 | 1014.7 |
| 20260506024418 | 14 | 360 | 12.9 | 38.6 | 0.00 | 0.00 | 0.00 | 38 | 1014.7 |
| 20260506024328 | 14 | 239 | 12.9 | 38.6 | 0.00 | 0.00 | 0.00 | 38 | 1014.7 |
| 20260506024238 | 14 | 291 | 20.9 | 38.6 | 0.00 | 0.00 | 0.00 | 38 | 1014.7 |
| 20260506024134 | 14 | 234 | 22.5 | 37.0 | 0.00 | 0.00 | 0.00 | 38 | 1014.7 |
| 20260506024030 | 14 | 360 | 20.9 | 37.0 | 0.00 | 0.00 | 0.00 | 39 | 1014.7 |
| 20260506023924 | 14 | 188 | 16.1 | 33.8 | 0.00 | 0.00 | 0.00 | 39 | 1014.7 |
| 20260506023814 | 14 | 238 | 20.9 | 33.8 | 0.00 | 0.00 | 0.00 | 39 | 1014.7 |
| 20260506023724 | 14 | 360 | 24.1 | 33.8 | 0.00 | 0.00 | 0.00 | 39 | 1014.7 |
| 20260506023620 | 14 | 360 | 24.1 | 40.2 | 0.00 | 0.00 | 0.00 | 39 | 1014.7 |
| 20260506023529 | 14 | 360 | 20.9 | 40.2 | 0.00 | 0.00 | 0.00 | 39 | 1014.7 |
| 20260506023423 | 14 | 235 | 17.7 | 40.2 | 0.00 | 0.00 | 0.00 | 39 | 1014.7 |
| 20260506023320 | 14 | 360 | 19.3 | 40.2 | 0.00 | 0.00 | 0.00 | 39 | 1014.7 |
| 20260506023221 | 14 | 268 | 17.7 | 40.2 | 0.00 | 0.00 | 0.00 | 39 | 1014.7 |
| 20260506023130 | 14 | 258 | 19.3 | 40.2 | 0.00 | 0.00 | 0.00 | 39 | 1014.7 |
| 20260506023032 | 14 | 268 | 22.5 | 40.2 | 0.00 | 0.00 | 0.00 | 39 | 1014.7 |
| 20260506022942 | 14 | 270 | 29.0 | 40.2 | 0.00 | 0.00 | 0.00 | 39 | 1014.7 |
| 20260506022842 | 14 | 360 | 25.7 | 40.2 | 0.00 | 0.00 | 0.00 | 39 | 1014.7 |
| 20260506022738 | 14 | 238 | 19.3 | 40.2 | 0.00 | 0.00 | 0.00 | 39 | 1014.7 |
| 20260506022614 | 14 | 242 | 16.1 | 30.6 | 0.00 | 0.00 | 0.00 | 39 | 1014.7 |
| 20260506022524 | 14 | 260 | 16.1 | 30.6 | 0.00 | 0.00 | 0.00 | 39 | 1014.7 |
| 20260506022417 | 14 | 263 | 20.9 | 30.6 | 0.00 | 0.00 | 0.00 | 39 | 1014.7 |
| 20260506022316 | 14 | 223 | 22.5 | 35.4 | 0.00 | 0.00 | 0.00 | 39 | 1014.7 |
| 20260506022233 | 14 | 360 | 20.9 | 35.4 | 0.00 | 0.00 | 0.00 | 39 | 1014.7 |
| 20260506022129 | 14 | 360 | 20.9 | 35.4 | 0.00 | 0.00 | 0.00 | 39 | 1014.7 |
| 20260506022019 | 14 | 239 | 19.3 | 35.4 | 0.00 | 0.00 | 0.00 | 39 | 1014.7 |
| 20260506021929 | 14 | 229 | 19.3 | 35.4 | 0.00 | 0.00 | 0.00 | 39 | 1014.7 |
| 20260506021819 | 14 | 360 | 19.3 | 35.4 | 0.00 | 0.00 | 0.00 | 39 | 1014.7 |
| 20260506021716 | 14 | 227 | 19.3 | 35.4 | 0.00 | 0.00 | 0.00 | 39 | 1014.7 |
| 20260506021636 | 14 | 360 | 20.9 | 35.4 | 0.00 | 0.00 | 0.00 | 39 | 1014.7 |
| 20260506021518 | 14 | 244 | 20.9 | 35.4 | 0.00 | 0.00 | 0.00 | 39 | 1014.6 |
| 20260506021427 | 14 | 235 | 20.9 | 35.4 | 0.00 | 0.00 | 0.00 | 39 | 1014.6 |
| 20260506021317 | 14 | 360 | 19.3 | 35.4 | 0.00 | 0.00 | 0.00 | 39 | 1014.6 |
| 20260506021231 | 14 | 360 | 20.9 | 35.4 | 0.00 | 0.00 | 0.00 | 39 | 1014.6 |
| 20260506021128 | 14 | 360 | 24.1 | 35.4 | 0.00 | 0.00 | 0.00 | 39 | 1014.6 |
| 20260506021023 | 14 | 259 | 24.1 | 35.4 | 0.00 | 0.00 | 0.00 | 39 | 1014.6 |
| 20260506020920 | 14 | 360 | 22.5 | 35.4 | 0.00 | 0.00 | 0.00 | 39 | 1014.6 |
| 20260506020829 | 14 | 360 | 19.3 | 32.2 | 0.00 | 0.00 | 0.00 | 39 | 1014.6 |
| 20260506020719 | 14 | 227 | 20.9 | 32.2 | 0.00 | 0.00 | 0.00 | 39 | 1014.6 |
| 20260506020613 | 14 | 360 | 24.1 | 32.2 | 0.00 | 0.00 | 0.00 | 39 | 1014.6 |
| 20260506020529 | 14 | 213 | 24.1 | 32.2 | 0.00 | 0.00 | 0.00 | 39 | 1014.6 |
| 20260506020419 | 14 | 360 | 19.3 | 32.2 | 0.00 | 0.00 | 0.00 | 39 | 1014.6 |
| 20260506020329 | 14 | 254 | 17.7 | 25.7 | 0.00 | 0.00 | 0.00 | 40 | 1014.6 |
| 20260506020210 | 14 | 261 | 17.7 | 25.7 | 0.00 | 0.00 | 0.00 | 40 | 1014.6 |
| 20260506020126 | 14 | 360 | 17.7 | 25.7 | 0.00 | 0.00 | 0.00 | 40 | 1014.6 |
| 20260506020025 | 14 | 360 | 16.1 | 25.7 | 0.00 | 0.00 | 0.00 | 40 | 1014.4 |
| 20260506015918 | 14 | 225 | 14.5 | 25.7 | 0.00 | 0.00 | 0.00 | 40 | 1014.4 |
| 20260506015828 | 14 | 259 | 16.1 | 25.7 | 0.00 | 0.00 | 0.00 | 39 | 1014.4 |
| 20260506015723 | 14 | 222 | 16.1 | 32.2 | 0.00 | 0.00 | 0.00 | 40 | 1014.4 |
| 20260506015614 | 14 | 360 | 17.7 | 32.2 | 0.00 | 0.00 | 0.00 | 39 | 1014.4 |
| 20260506015528 | 14 | 242 | 16.1 | 32.2 | 0.00 | 0.00 | 0.00 | 39 | 1014.4 |
| 20260506015424 | 14 | 240 | 14.5 | 32.2 | 0.00 | 0.00 | 0.00 | 39 | 1014.4 |
| 20260506015316 | 14 | 222 | 17.7 | 32.2 | 0.00 | 0.00 | 0.00 | 39 | 1014.4 |
| 20260506015226 | 14 | 360 | 17.7 | 32.2 | 0.00 | 0.00 | 0.00 | 39 | 1014.4 |
| 20260506015136 | 14 | 360 | 20.9 | 32.2 | 0.00 | 0.00 | 0.00 | 39 | 1014.4 |
| 20260506015016 | 14 | 246 | 20.9 | 32.2 | 0.00 | 0.00 | 0.00 | 39 | 1014.4 |
| 20260506014946 | 14 | 245 | 22.5 | 32.2 | 0.00 | 0.00 | 0.00 | 39 | 1014.4 |
| 20260506014822 | 14 | 235 | 20.9 | 30.6 | 0.00 | 0.00 | 0.00 | 39 | 1014.4 |
| 20260506014719 | 14 | 244 | 16.1 | 30.6 | 0.00 | 0.00 | 0.00 | 39 | 1014.4 |
| 20260506014642 | 14 | 360 | 14.5 | 30.6 | 0.00 | 0.00 | 0.00 | 39 | 1014.4 |
| 20260506014528 | 14 | 218 | 16.1 | 30.6 | 0.00 | 0.00 | 0.00 | 39 | 1014.5 |
| 20260506014421 | 14 | 213 | 17.7 | 30.6 | 0.00 | 0.00 | 0.00 | 39 | 1014.5 |
| 20260506014331 | 14 | 217 | 17.7 | 30.6 | 0.00 | 0.00 | 0.00 | 39 | 1014.5 |
| 20260506014221 | 14 | 231 | 19.3 | 30.6 | 0.00 | 0.00 | 0.00 | 39 | 1014.5 |
| 20260506014114 | 15 | 217 | 22.5 | 30.6 | 0.00 | 0.00 | 0.00 | 39 | 1014.5 |
| 20260506014024 | 15 | 360 | 20.9 | 30.6 | 0.00 | 0.00 | 0.00 | 39 | 1014.5 |
| 20260506013920 | 15 | 360 | 17.7 | 30.6 | 0.00 | 0.00 | 0.00 | 39 | 1014.5 |
| 20260506013814 | 15 | 234 | 17.7 | 27.4 | 0.00 | 0.00 | 0.00 | 39 | 1014.5 |
| 20260506013724 | 15 | 360 | 17.7 | 25.7 | 0.00 | 0.00 | 0.00 | 39 | 1014.5 |
| 20260506013617 | 15 | 360 | 17.7 | 33.8 | 0.00 | 0.00 | 0.00 | 39 | 1014.5 |
| 20260506013547 | 15 | 360 | 17.7 | 33.8 | 0.00 | 0.00 | 0.00 | 39 | 1014.5 |
| 20260506013443 | 15 | 238 | 17.7 | 33.8 | 0.00 | 0.00 | 0.00 | 39 | 1014.5 |
| 20260506013339 | 15 | 360 | 16.1 | 33.8 | 0.00 | 0.00 | 0.00 | 39 | 1014.5 |
| 20260506013219 | 15 | 220 | 16.1 | 33.8 | 0.00 | 0.00 | 0.00 | 39 | 1014.5 |
| 20260506013140 | 15 | 244 | 17.7 | 33.8 | 0.00 | 0.00 | 0.00 | 39 | 1014.5 |
| 20260506013025 | 15 | 223 | 17.7 | 33.8 | 0.00 | 0.00 | 0.00 | 39 | 1014.3 |
| 20260506012935 | 15 | 239 | 17.7 | 33.8 | 0.00 | 0.00 | 0.00 | 39 | 1014.3 |
| 20260506012831 | 15 | 207 | 20.9 | 33.8 | 0.00 | 0.00 | 0.00 | 39 | 1014.3 |
| 20260506012740 | 15 | 360 | 20.9 | 33.8 | 0.00 | 0.00 | 0.00 | 38 | 1014.3 |
| 20260506012640 | 15 | 216 | 20.9 | 30.6 | 0.00 | 0.00 | 0.00 | 39 | 1014.3 |
| 20260506012536 | 15 | 205 | 20.9 | 40.2 | 0.00 | 0.00 | 0.00 | 39 | 1014.3 |
| 20260506012432 | 15 | 225 | 20.9 | 40.2 | 0.00 | 0.00 | 0.00 | 39 | 1014.3 |
| 20260506012342 | 15 | 239 | 16.1 | 40.2 | 0.00 | 0.00 | 0.00 | 39 | 1014.3 |
| 20260506012238 | 15 | 250 | 16.1 | 40.2 | 0.00 | 0.00 | 0.00 | 39 | 1014.3 |
| 20260506012117 | 15 | 239 | 19.3 | 40.2 | 0.00 | 0.00 | 0.00 | 39 | 1014.3 |
| 20260506012032 | 15 | 360 | 19.3 | 40.2 | 0.00 | 0.00 | 0.00 | 39 | 1014.3 |
| 20260506011928 | 15 | 360 | 20.9 | 40.2 | 0.00 | 0.00 | 0.00 | 39 | 1014.3 |
| 20260506011824 | 15 | 360 | 20.9 | 40.2 | 0.00 | 0.00 | 0.00 | 39 | 1014.3 |
| 20260506011713 | 15 | 360 | 24.1 | 40.2 | 0.00 | 0.00 | 0.00 | 39 | 1014.3 |
| 20260506011633 | 15 | 238 | 22.5 | 35.4 | 0.00 | 0.00 | 0.00 | 39 | 1014.3 |
| 20260506011516 | 14 | 227 | 19.3 | 35.4 | 0.00 | 0.00 | 0.00 | 38 | 1014.3 |
| 20260506011426 | 15 | 219 | 17.7 | 30.6 | 0.00 | 0.00 | 0.00 | 38 | 1014.3 |
| 20260506011316 | 15 | 227 | 16.1 | 41.8 | 0.00 | 0.00 | 0.00 | 38 | 1014.3 |
| 20260506011229 | 15 | 224 | 16.1 | 41.8 | 0.00 | 0.00 | 0.00 | 39 | 1014.3 |
| 20260506011119 | 15 | 227 | 17.7 | 41.8 | 0.00 | 0.00 | 0.00 | 39 | 1014.3 |
| 20260506011015 | 15 | 360 | 19.3 | 41.8 | 0.00 | 0.00 | 0.00 | 38 | 1014.3 |
| 20260506010929 | 15 | 236 | 17.7 | 41.8 | 0.00 | 0.00 | 0.00 | 38 | 1014.3 |
| 20260506010839 | 15 | 248 | 17.7 | 41.8 | 0.00 | 0.00 | 0.00 | 38 | 1014.3 |
| 20260506010715 | 15 | 360 | 22.5 | 41.8 | 0.00 | 0.00 | 0.00 | 38 | 1014.3 |
| 20260506010628 | 15 | 360 | 25.7 | 41.8 | 0.00 | 0.00 | 0.00 | 38 | 1014.3 |
| 20260506010518 | 15 | 360 | 24.1 | 41.8 | 0.00 | 0.00 | 0.00 | 38 | 1014.3 |
| 20260506010418 | 15 | 227 | 22.5 | 37.0 | 0.00 | 0.00 | 0.00 | 37 | 1014.3 |
| 20260506010327 | 15 | 360 | 25.7 | 41.8 | 0.00 | 0.00 | 0.00 | 37 | 1014.3 |
| 20260506010229 | 15 | 235 | 27.4 | 45.1 | 0.00 | 0.00 | 0.00 | 37 | 1014.3 |
| 20260506010131 | 15 | 240 | 24.1 | 49.9 | 0.00 | 0.00 | 0.00 | 37 | 1014.3 |
| 20260506010016 | 15 | 360 | 19.3 | 49.9 | 0.00 | 0.00 | 0.00 | 37 | 1014.3 |
| 20260506005925 | 15 | 360 | 20.9 | 49.9 | 0.00 | 0.00 | 0.00 | 37 | 1014.3 |
| 20260506005819 | 15 | 221 | 25.7 | 49.9 | 0.00 | 0.00 | 0.00 | 37 | 1014.3 |
| 20260506005732 | 15 | 217 | 29.0 | 49.9 | 0.00 | 0.00 | 0.00 | 37 | 1014.3 |
| 20260506005622 | 15 | 360 | 27.4 | 49.9 | 0.00 | 0.00 | 0.00 | 37 | 1014.3 |
| 20260506005518 | 15 | 360 | 30.6 | 49.9 | 0.00 | 0.00 | 0.00 | 37 | 1014.3 |
| 20260506005428 | 15 | 244 | 35.4 | 49.9 | 0.00 | 0.00 | 0.00 | 37 | 1014.3 |
| 20260506005321 | 15 | 261 | 37.0 | 49.9 | 0.00 | 0.00 | 0.00 | 36 | 1014.3 |
| 20260506005215 | 15 | 238 | 35.4 | 48.3 | 0.00 | 0.00 | 0.00 | 36 | 1014.3 |
| 20260506005145 | 15 | 360 | 35.4 | 53.1 | 0.00 | 0.00 | 0.00 | 37 | 1014.3 |
| 20260506005041 | 15 | 360 | 33.8 | 53.1 | 0.00 | 0.00 | 0.00 | 37 | 1014.3 |
| 20260506004917 | 15 | 238 | 29.0 | 53.1 | 0.00 | 0.00 | 0.00 | 37 | 1014.3 |
| 20260506004830 | 15 | 360 | 29.0 | 53.1 | 0.00 | 0.00 | 0.00 | 37 | 1014.3 |
| 20260506004718 | 15 | 360 | 25.7 | 53.1 | 0.00 | 0.00 | 0.00 | 37 | 1014.3 |
| 20260506004651 | 15 | 360 | 29.0 | 53.1 | 0.00 | 0.00 | 0.00 | 37 | 1014.3 |
| 20260506004519 | 15 | 360 | 35.4 | 53.1 | 0.00 | 0.00 | 0.00 | 37 | 1014.1 |
| 20260506004429 | 15 | 220 | 30.6 | 53.1 | 0.00 | 0.00 | 0.00 | 37 | 1014.1 |
| 20260506004324 | 15 | 239 | 24.1 | 53.1 | 0.00 | 0.00 | 0.00 | 37 | 1014.1 |
| 20260506004218 | 15 | 244 | 20.9 | 43.5 | 0.00 | 0.00 | 0.00 | 37 | 1014.1 |
| 20260506004112 | 15 | 230 | 24.1 | 43.5 | 0.00 | 0.00 | 0.00 | 37 | 1014.1 |
| 20260506004031 | 15 | 237 | 29.0 | 43.5 | 0.00 | 0.00 | 0.00 | 37 | 1014.1 |
| 20260506003927 | 15 | 283 | 30.6 | 43.5 | 0.00 | 0.00 | 0.00 | 37 | 1014.1 |
| 20260506003816 | 15 | 252 | 29.0 | 45.1 | 0.00 | 0.00 | 0.00 | 37 | 1014.1 |
| 20260506003726 | 15 | 240 | 25.7 | 49.9 | 0.00 | 0.00 | 0.00 | 37 | 1014.1 |
| 20260506003620 | 15 | 360 | 24.1 | 49.9 | 0.00 | 0.00 | 0.00 | 37 | 1014.1 |
| 20260506003510 | 15 | 360 | 24.1 | 49.9 | 0.00 | 0.00 | 0.00 | 37 | 1014.1 |
| 20260506003423 | 15 | 360 | 22.5 | 49.9 | 0.00 | 0.00 | 0.00 | 37 | 1014.1 |
| 20260506003313 | 15 | 244 | 24.1 | 54.7 | 0.00 | 0.00 | 0.00 | 37 | 1014.1 |
| 20260506003213 | 15 | 234 | 32.2 | 59.5 | 0.00 | 0.00 | 0.00 | 37 | 1014.1 |
| 20260506003146 | 15 | 360 | 33.8 | 59.5 | 0.00 | 0.00 | 0.00 | 37 | 1014.1 |
| 20260506003015 | 15 | 360 | 32.2 | 59.5 | 0.00 | 0.00 | 0.00 | 36 | 1013.9 |
| 20260506002931 | 15 | 236 | 35.4 | 59.5 | 0.00 | 0.00 | 0.00 | 36 | 1013.9 |
| 20260506002841 | 15 | 224 | 35.4 | 59.5 | 0.00 | 0.00 | 0.00 | 36 | 1013.9 |
| 20260506002717 | 15 | 250 | 33.8 | 59.5 | 0.00 | 0.00 | 0.00 | 36 | 1013.9 |
| 20260506002627 | 15 | 211 | 35.4 | 59.5 | 0.00 | 0.00 | 0.00 | 36 | 1013.9 |
| 20260506002521 | 15 | 238 | 35.4 | 61.2 | 0.00 | 0.00 | 0.00 | 36 | 1013.9 |
| 20260506002414 | 15 | 360 | 35.4 | 61.2 | 0.00 | 0.00 | 0.00 | 36 | 1013.9 |
| 20260506002324 | 15 | 360 | 37.0 | 61.2 | 0.00 | 0.00 | 0.00 | 36 | 1013.9 |
| 20260506002214 | 15 | 360 | 37.0 | 61.2 | 0.00 | 0.00 | 0.00 | 37 | 1013.9 |
| 20260506002124 | 15 | 229 | 38.6 | 61.2 | 0.00 | 0.00 | 0.00 | 37 | 1013.9 |
| 20260506002020 | 15 | 360 | 38.6 | 61.2 | 0.00 | 0.00 | 0.00 | 36 | 1013.9 |
| 20260506001913 | 15 | 237 | 41.8 | 61.2 | 0.00 | 0.00 | 0.00 | 37 | 1013.9 |
| 20260506001830 | 15 | 360 | 43.5 | 61.2 | 0.00 | 0.00 | 0.00 | 36 | 1013.9 |
| 20260506001730 | 15 | 360 | 43.5 | 61.2 | 0.00 | 0.00 | 0.00 | 37 | 1013.9 |
| 20260506001628 | 15 | 360 | 41.8 | 59.5 | 0.00 | 0.00 | 0.00 | 37 | 1013.9 |
| 20260506001527 | 15 | 360 | 43.5 | 59.5 | 0.00 | 0.00 | 0.00 | 38 | 1014.3 |
| 20260506001421 | 15 | 360 | 41.8 | 54.7 | 0.00 | 0.00 | 0.00 | 38 | 1014.3 |
| 20260506001331 | 15 | 360 | 29.0 | 54.7 | 0.00 | 0.00 | 0.00 | 39 | 1014.3 |
| 20260506001227 | 15 | 360 | 22.5 | 43.5 | 0.00 | 0.00 | 0.00 | 40 | 1014.3 |
| 20260506001123 | 15 | 360 | 17.7 | 30.6 | 0.00 | 0.00 | 0.00 | 42 | 1014.3 |
| 20260506001016 | 15 | 247 | 17.7 | 35.4 | 0.00 | 0.00 | 0.00 | 43 | 1014.3 |
| 20260506000926 | 15 | 227 | 19.3 | 35.4 | 0.00 | 0.00 | 0.00 | 43 | 1014.3 |
| 20260506000820 | 15 | 225 | 20.9 | 35.4 | 0.00 | 0.00 | 0.00 | 43 | 1014.3 |
| 20260506000730 | 15 | 360 | 20.9 | 35.4 | 0.00 | 0.00 | 0.00 | 43 | 1014.3 |
| 20260506000623 | 15 | 245 | 19.3 | 35.4 | 0.00 | 0.00 | 0.00 | 43 | 1014.3 |
| 20260506000519 | 15 | 360 | 17.7 | 46.7 | 0.00 | 0.00 | 0.00 | 43 | 1014.3 |
| 20260506000418 | 15 | 233 | 22.5 | 46.7 | 0.00 | 0.00 | 0.00 | 43 | 1014.3 |
| 20260506000315 | 15 | 360 | 22.5 | 46.7 | 0.00 | 0.00 | 0.00 | 43 | 1014.3 |
| 20260506000216 | 15 | 360 | 22.5 | 46.7 | 0.00 | 0.00 | 0.00 | 43 | 1014.3 |
| 20260506000125 | 15 | 360 | 22.5 | 46.7 | 0.00 | 0.00 | 0.00 | 42 | 1014.3 |
| 20260506000030 | 15 | 224 | 25.7 | 46.7 | 0.00 | 0.00 | 0.00 | 42 | 1014.3 |
| 20260505235923 | 15 | 360 | 29.0 | 46.7 | 0.00 | 0.00 | 0.00 | 43 | 1014.3 |
| 20260505235833 | 15 | 360 | 29.0 | 46.7 | 0.00 | 0.00 | 0.00 | 42 | 1014.3 |
| 20260505235732 | 15 | 360 | 29.0 | 46.7 | 0.00 | 0.00 | 0.00 | 42 | 1014.3 |
| 20260505235628 | 15 | 360 | 27.4 | 40.2 | 0.00 | 0.00 | 0.00 | 42 | 1014.3 |
| 20260505235521 | 15 | 360 | 25.7 | 40.2 | 0.00 | 0.00 | 0.00 | 42 | 1014.3 |
| 20260505235418 | 15 | 360 | 24.1 | 41.8 | 0.00 | 0.00 | 0.00 | 43 | 1014.3 |
| 20260505235327 | 15 | 221 | 20.9 | 41.8 | 0.00 | 0.00 | 0.00 | 43 | 1014.3 |
| 20260505235223 | 15 | 211 | 22.5 | 41.8 | 0.00 | 0.00 | 0.00 | 43 | 1014.3 |
| 20260505235117 | 15 | 249 | 19.3 | 41.8 | 0.00 | 0.00 | 0.00 | 43 | 1014.3 |
| 20260505235013 | 14 | 360 | 22.5 | 41.8 | 0.00 | 0.00 | 0.00 | 43 | 1014.3 |
| 20260505234923 | 14 | 360 | 22.5 | 46.7 | 0.00 | 0.00 | 0.00 | 43 | 1014.3 |
| 20260505234816 | 14 | 360 | 27.4 | 46.7 | 0.00 | 0.00 | 0.00 | 43 | 1014.3 |
| 20260505234720 | 14 | 360 | 29.0 | 46.7 | 0.00 | 0.00 | 0.00 | 43 | 1014.3 |
| 20260505234634 | 14 | 360 | 30.6 | 46.7 | 0.00 | 0.00 | 0.00 | 43 | 1014.3 |
| 20260505234536 | 14 | 360 | 27.4 | 46.7 | 0.00 | 0.00 | 0.00 | 43 | 1014.3 |
| 20260505234432 | 14 | 360 | 25.7 | 46.7 | 0.00 | 0.00 | 0.00 | 44 | 1014.3 |
| 20260505234322 | 14 | 204 | 29.0 | 46.7 | 0.00 | 0.00 | 0.00 | 44 | 1014.3 |
| 20260505234218 | 14 | 360 | 29.0 | 46.7 | 0.00 | 0.00 | 0.00 | 44 | 1014.3 |
| 20260505234128 | 14 | 360 | 27.4 | 46.7 | 0.00 | 0.00 | 0.00 | 44 | 1014.3 |
| 20260505234028 | 14 | 238 | 24.1 | 40.2 | 0.00 | 0.00 | 0.00 | 44 | 1014.3 |
| 20260505233937 | 14 | 229 | 22.5 | 38.6 | 0.00 | 0.00 | 0.00 | 44 | 1014.3 |
| 20260505233816 | 14 | 220 | 19.3 | 38.6 | 0.00 | 0.00 | 0.00 | 45 | 1014.3 |
| 20260505233726 | 14 | 220 | 16.1 | 38.6 | 0.00 | 0.00 | 0.00 | 45 | 1014.3 |
| 20260505233636 | 14 | 206 | 14.5 | 38.6 | 0.00 | 0.00 | 0.00 | 45 | 1014.3 |
| 20260505233532 | 14 | 360 | 20.9 | 38.6 | 0.00 | 0.00 | 0.00 | 44 | 1014.3 |
| 20260505233433 | 14 | 225 | 25.7 | 38.6 | 0.00 | 0.00 | 0.00 | 44 | 1014.3 |
| 20260505233322 | 14 | 360 | 27.4 | 38.6 | 0.00 | 0.00 | 0.00 | 44 | 1014.3 |
| 20260505233215 | 14 | 228 | 25.7 | 38.6 | 0.00 | 0.00 | 0.00 | 44 | 1014.3 |
| 20260505233139 | 14 | 360 | 24.1 | 38.6 | 0.00 | 0.00 | 0.00 | 45 | 1014.3 |
| 20260505233038 | 14 | 360 | 25.7 | 37.0 | 0.00 | 0.00 | 0.00 | 44 | 1014.3 |
| 20260505232920 | 14 | 213 | 27.4 | 37.0 | 0.00 | 0.00 | 0.00 | 44 | 1014.3 |
| 20260505232820 | 14 | 227 | 25.7 | 38.6 | 0.00 | 0.00 | 0.00 | 44 | 1014.3 |
| 20260505232716 | 14 | 360 | 25.7 | 38.6 | 0.00 | 0.00 | 0.00 | 44 | 1014.3 |
| 20260505232629 | 15 | 227 | 24.1 | 38.6 | 0.00 | 0.00 | 0.00 | 45 | 1014.3 |
| 20260505232519 | 15 | 236 | 22.5 | 38.6 | 0.00 | 0.00 | 0.00 | 44 | 1014.3 |
| 20260505232429 | 15 | 360 | 20.9 | 32.2 | 0.00 | 0.00 | 0.00 | 44 | 1014.3 |
| 20260505232323 | 15 | 243 | 19.3 | 32.2 | 0.00 | 0.00 | 0.00 | 45 | 1014.3 |
| 20260505232219 | 15 | 227 | 20.9 | 35.4 | 0.00 | 0.00 | 0.00 | 45 | 1014.3 |
| 20260505232111 | 15 | 215 | 20.9 | 35.4 | 0.00 | 0.00 | 0.00 | 44 | 1014.3 |
| 20260505232025 | 15 | 224 | 19.3 | 40.2 | 0.00 | 0.00 | 0.00 | 45 | 1014.3 |
| 20260505231923 | 15 | 240 | 17.7 | 40.2 | 0.00 | 0.00 | 0.00 | 45 | 1014.3 |
| 20260505231820 | 15 | 258 | 17.7 | 40.2 | 0.00 | 0.00 | 0.00 | 45 | 1014.3 |
| 20260505231713 | 15 | 360 | 17.7 | 40.2 | 0.00 | 0.00 | 0.00 | 45 | 1014.3 |
| 20260505231636 | 15 | 360 | 17.7 | 40.2 | 0.00 | 0.00 | 0.00 | 45 | 1014.3 |
| 20260505231515 | 15 | 259 | 19.3 | 40.2 | 0.00 | 0.00 | 0.00 | 45 | 1014.3 |
| 20260505231425 | 15 | 219 | 24.1 | 40.2 | 0.00 | 0.00 | 0.00 | 44 | 1014.3 |
| 20260505231315 | 15 | 243 | 29.0 | 40.2 | 0.00 | 0.00 | 0.00 | 44 | 1014.3 |
| 20260505231215 | 15 | 242 | 27.4 | 40.2 | 0.00 | 0.00 | 0.00 | 44 | 1014.3 |
| 20260505231145 | 15 | 360 | 24.1 | 40.2 | 0.00 | 0.00 | 0.00 | 44 | 1014.3 |
| 20260505231021 | 15 | 360 | 19.3 | 40.2 | 0.00 | 0.00 | 0.00 | 44 | 1014.3 |
| 20260505230914 | 15 | 360 | 16.1 | 48.3 | 0.00 | 0.00 | 0.00 | 45 | 1014.3 |
| 20260505230824 | 15 | 241 | 14.5 | 48.3 | 0.00 | 0.00 | 0.00 | 45 | 1014.3 |
| 20260505230720 | 15 | 263 | 12.9 | 48.3 | 0.00 | 0.00 | 0.00 | 45 | 1014.3 |
| 20260505230614 | 15 | 249 | 16.1 | 48.3 | 0.00 | 0.00 | 0.00 | 45 | 1014.3 |
| 20260505230524 | 15 | 242 | 17.7 | 48.3 | 0.00 | 0.00 | 0.00 | 44 | 1014.3 |
| 20260505230417 | 15 | 207 | 19.3 | 48.3 | 0.00 | 0.00 | 0.00 | 44 | 1014.3 |
| 20260505230327 | 15 | 360 | 20.9 | 48.3 | 0.00 | 0.00 | 0.00 | 45 | 1014.3 |
| 20260505230217 | 15 | 360 | 27.4 | 48.3 | 0.00 | 0.00 | 0.00 | 45 | 1014.3 |
| 20260505230144 | 15 | 360 | 30.6 | 48.3 | 0.00 | 0.00 | 0.00 | 44 | 1014.3 |
| 20260505230028 | 15 | 360 | 25.7 | 48.3 | 0.00 | 0.00 | 0.00 | 45 | 1014.4 |
| 20260505225938 | 15 | 360 | 16.1 | 37.0 | 0.00 | 0.00 | 0.00 | 45 | 1014.4 |
| 20260505225814 | 15 | 229 | 11.3 | 35.4 | 0.00 | 0.00 | 0.00 | 45 | 1014.4 |
| 20260505225744 | 15 | 209 | 12.9 | 35.4 | 0.00 | 0.00 | 0.00 | 45 | 1014.4 |
| 20260505225620 | 15 | 220 | 14.5 | 35.4 | 0.00 | 0.00 | 0.00 | 45 | 1014.4 |
| 20260505225534 | 15 | 214 | 17.7 | 35.4 | 0.00 | 0.00 | 0.00 | 46 | 1014.4 |
| 20260505225430 | 14 | 221 | 16.1 | 35.4 | 0.00 | 0.00 | 0.00 | 46 | 1014.4 |
| 20260505225326 | 14 | 248 | 14.5 | 35.4 | 0.00 | 0.00 | 0.00 | 46 | 1014.4 |
| 20260505225236 | 14 | 244 | 14.5 | 35.4 | 0.00 | 0.00 | 0.00 | 46 | 1014.4 |
| 20260505225115 | 14 | 229 | 19.3 | 40.2 | 0.00 | 0.00 | 0.00 | 46 | 1014.4 |
| 20260505225045 | 14 | 360 | 19.3 | 40.2 | 0.00 | 0.00 | 0.00 | 46 | 1014.4 |
| 20260505224925 | 14 | 223 | 16.1 | 40.2 | 0.00 | 0.00 | 0.00 | 47 | 1014.4 |
| 20260505224815 | 14 | 217 | 12.9 | 40.2 | 0.00 | 0.00 | 0.00 | 47 | 1014.4 |
| 20260505224736 | 14 | 253 | 19.3 | 40.2 | 0.00 | 0.00 | 0.00 | 46 | 1014.4 |
| 20260505224638 | 14 | 232 | 22.5 | 40.2 | 0.00 | 0.00 | 0.00 | 46 | 1014.4 |
| 20260505224537 | 14 | 360 | 25.7 | 40.2 | 0.00 | 0.00 | 0.00 | 46 | 1014.9 |
| 20260505224433 | 14 | 360 | 24.1 | 40.2 | 0.00 | 0.00 | 0.00 | 46 | 1014.9 |
| 20260505224315 | 14 | 360 | 20.9 | 40.2 | 0.00 | 0.00 | 0.00 | 47 | 1014.9 |
| 20260505224229 | 14 | 217 | 17.7 | 30.6 | 0.00 | 0.00 | 0.00 | 47 | 1014.9 |
| 20260505224139 | 14 | 360 | 19.3 | 30.6 | 0.00 | 0.00 | 0.00 | 47 | 1014.9 |
| 20260505224035 | 14 | 219 | 19.3 | 30.6 | 0.00 | 0.00 | 0.00 | 47 | 1014.9 |
| 20260505223931 | 14 | 360 | 17.7 | 30.6 | 0.00 | 0.00 | 0.00 | 48 | 1014.9 |
| 20260505223841 | 13 | 360 | 19.3 | 30.6 | 0.00 | 0.00 | 0.00 | 48 | 1014.9 |
| 20260505223737 | 13 | 231 | 20.9 | 30.6 | 0.00 | 0.00 | 0.00 | 48 | 1014.9 |
| 20260505223623 | 13 | 220 | 22.5 | 35.4 | 0.00 | 0.00 | 0.00 | 48 | 1014.9 |
| 20260505223532 | 13 | 360 | 22.5 | 37.0 | 0.00 | 0.00 | 0.00 | 48 | 1014.9 |
| 20260505223428 | 13 | 360 | 17.7 | 37.0 | 0.00 | 0.00 | 0.00 | 48 | 1014.9 |
| 20260505223321 | 13 | 252 | 17.7 | 46.7 | 0.00 | 0.00 | 0.00 | 48 | 1014.9 |
| 20260505223221 | 13 | 239 | 16.1 | 46.7 | 0.00 | 0.00 | 0.00 | 48 | 1014.9 |
| 20260505223131 | 13 | 263 | 17.7 | 46.7 | 0.00 | 0.00 | 0.00 | 48 | 1014.9 |
| 20260505223014 | 13 | 360 | 22.5 | 46.7 | 0.00 | 0.00 | 0.00 | 48 | 1014.7 |
| 20260505222930 | 13 | 360 | 25.7 | 46.7 | 0.00 | 0.00 | 0.00 | 48 | 1014.7 |
| 20260505222820 | 13 | 247 | 29.0 | 46.7 | 0.00 | 0.00 | 0.00 | 48 | 1014.7 |
| 20260505222730 | 14 | 360 | 29.0 | 46.7 | 0.00 | 0.00 | 0.00 | 48 | 1014.7 |
| 20260505222626 | 14 | 360 | 29.0 | 46.7 | 0.00 | 0.00 | 0.00 | 47 | 1014.7 |
| 20260505222520 | 14 | 221 | 29.0 | 46.7 | 0.00 | 0.00 | 0.00 | 47 | 1014.7 |
| 20260505222419 | 14 | 360 | 25.7 | 40.2 | 0.00 | 0.00 | 0.00 | 47 | 1014.7 |
| 20260505222329 | 14 | 360 | 25.7 | 40.2 | 0.00 | 0.00 | 0.00 | 47 | 1014.7 |
| 20260505222219 | 14 | 264 | 24.1 | 40.2 | 0.00 | 0.00 | 0.00 | 48 | 1014.7 |
| 20260505222129 | 14 | 238 | 22.5 | 37.0 | 0.00 | 0.00 | 0.00 | 48 | 1014.7 |
| 20260505222039 | 14 | 360 | 20.9 | 37.0 | 0.00 | 0.00 | 0.00 | 47 | 1014.7 |
| 20260505221919 | 14 | 248 | 20.9 | 40.2 | 0.00 | 0.00 | 0.00 | 48 | 1014.7 |
| 20260505221829 | 14 | 276 | 24.1 | 40.2 | 0.00 | 0.00 | 0.00 | 48 | 1014.7 |
| 20260505221722 | 14 | 221 | 24.1 | 40.2 | 0.00 | 0.00 | 0.00 | 48 | 1014.7 |
| 20260505221651 | 14 | 211 | 22.5 | 40.2 | 0.00 | 0.00 | 0.00 | 48 | 1014.7 |
| 20260505221517 | 14 | 211 | 17.7 | 40.2 | 0.00 | 0.00 | 0.00 | 48 | 1015.0 |
| 20260505221427 | 14 | 360 | 17.7 | 41.8 | 0.00 | 0.00 | 0.00 | 48 | 1015.0 |
| 20260505221323 | 14 | 240 | 19.3 | 41.8 | 0.00 | 0.00 | 0.00 | 48 | 1015.0 |
| 20260505221213 | 14 | 360 | 24.1 | 53.1 | 0.00 | 0.00 | 0.00 | 48 | 1015.0 |
| 20260505221143 | 14 | 242 | 25.7 | 53.1 | 0.00 | 0.00 | 0.00 | 48 | 1015.0 |
| 20260505221025 | 14 | 360 | 27.4 | 53.1 | 0.00 | 0.00 | 0.00 | 48 | 1015.0 |
| 20260505220922 | 14 | 259 | 25.7 | 53.1 | 0.00 | 0.00 | 0.00 | 48 | 1015.0 |
| 20260505220831 | 13 | 360 | 27.4 | 53.1 | 0.00 | 0.00 | 0.00 | 48 | 1015.0 |
| 20260505220711 | 13 | 210 | 29.0 | 53.1 | 0.00 | 0.00 | 0.00 | 47 | 1015.0 |
| 20260505220624 | 13 | 360 | 33.8 | 53.1 | 0.00 | 0.00 | 0.00 | 48 | 1015.0 |
| 20260505220514 | 13 | 360 | 33.8 | 53.1 | 0.00 | 0.00 | 0.00 | 47 | 1015.0 |
| 20260505220424 | 14 | 360 | 37.0 | 51.5 | 0.00 | 0.00 | 0.00 | 47 | 1015.0 |
| 20260505220317 | 14 | 360 | 33.8 | 51.5 | 0.00 | 0.00 | 0.00 | 47 | 1015.0 |
| 20260505220221 | 14 | 360 | 29.0 | 43.5 | 0.00 | 0.00 | 0.00 | 47 | 1015.0 |
| 20260505220151 | 14 | 241 | 25.7 | 41.8 | 0.00 | 0.00 | 0.00 | 47 | 1015.0 |
| 20260505220022 | 14 | 231 | 22.5 | 41.8 | 0.00 | 0.00 | 0.00 | 47 | 1015.2 |
| 20260505215918 | 14 | 360 | 25.7 | 41.8 | 0.00 | 0.00 | 0.00 | 47 | 1015.2 |
| 20260505215827 | 14 | 223 | 27.4 | 41.8 | 0.00 | 0.00 | 0.00 | 47 | 1015.2 |
| 20260505215724 | 14 | 227 | 29.0 | 51.5 | 0.00 | 0.00 | 0.00 | 47 | 1015.2 |
| 20260505215617 | 14 | 360 | 27.4 | 51.5 | 0.00 | 0.00 | 0.00 | 48 | 1015.2 |
| 20260505215531 | 13 | 360 | 24.1 | 51.5 | 0.00 | 0.00 | 0.00 | 48 | 1015.2 |
| 20260505215420 | 13 | 249 | 16.1 | 51.5 | 0.00 | 0.00 | 0.00 | 48 | 1015.2 |
| 20260505215310 | 13 | 360 | 19.3 | 51.5 | 0.00 | 0.00 | 0.00 | 48 | 1015.2 |
| 20260505215230 | 13 | 228 | 20.9 | 51.5 | 0.00 | 0.00 | 0.00 | 48 | 1015.2 |
| 20260505215119 | 13 | 360 | 27.4 | 51.5 | 0.00 | 0.00 | 0.00 | 48 | 1015.2 |
| 20260505215013 | 13 | 360 | 35.4 | 51.5 | 0.00 | 0.00 | 0.00 | 48 | 1015.2 |
| 20260505214924 | 13 | 360 | 35.4 | 51.5 | 0.00 | 0.00 | 0.00 | 48 | 1015.2 |
| 20260505214813 | 13 | 360 | 30.6 | 46.7 | 0.00 | 0.00 | 0.00 | 48 | 1015.2 |
| 20260505214713 | 13 | 360 | 22.5 | 40.2 | 0.00 | 0.00 | 0.00 | 49 | 1015.2 |
| 20260505214643 | 13 | 360 | 17.7 | 38.6 | 0.00 | 0.00 | 0.00 | 50 | 1015.2 |
| 20260505214526 | 13 | 240 | 14.5 | 35.4 | 0.00 | 0.00 | 0.00 | 50 | 1015.4 |
| 20260505214416 | 13 | 285 | 22.5 | 35.4 | 0.00 | 0.00 | 0.00 | 50 | 1015.4 |
| 20260505214332 | 13 | 360 | 24.1 | 35.4 | 0.00 | 0.00 | 0.00 | 50 | 1015.4 |
| 20260505214222 | 13 | 194 | 22.5 | 38.6 | 0.00 | 0.00 | 0.00 | 51 | 1015.4 |
| 20260505214118 | 13 | 242 | 19.3 | 38.6 | 0.00 | 0.00 | 0.00 | 51 | 1015.4 |
| 20260505214015 | 13 | 254 | 16.1 | 38.6 | 0.00 | 0.00 | 0.00 | 51 | 1015.4 |
| 20260505213925 | 13 | 360 | 14.5 | 38.6 | 0.00 | 0.00 | 0.00 | 51 | 1015.4 |
| 20260505213815 | 13 | 225 | 19.3 | 38.6 | 0.00 | 0.00 | 0.00 | 51 | 1015.4 |
| 20260505213725 | 13 | 238 | 24.1 | 38.6 | 0.00 | 0.00 | 0.00 | 51 | 1015.4 |
| 20260505213618 | 13 | 213 | 27.4 | 38.6 | 0.00 | 0.00 | 0.00 | 51 | 1015.4 |
| 20260505213528 | 13 | 360 | 27.4 | 38.6 | 0.00 | 0.00 | 0.00 | 51 | 1015.4 |
| 20260505213428 | 13 | 226 | 25.7 | 38.6 | 0.00 | 0.00 | 0.00 | 51 | 1015.4 |
| 20260505213341 | 13 | 210 | 22.5 | 35.4 | 0.00 | 0.00 | 0.00 | 52 | 1015.4 |
| 20260505213220 | 13 | 217 | 22.5 | 33.8 | 0.00 | 0.00 | 0.00 | 53 | 1015.4 |
| 20260505213141 | 13 | 208 | 24.1 | 33.8 | 0.00 | 0.00 | 0.00 | 53 | 1015.4 |
| 20260505213020 | 13 | 227 | 20.9 | 33.8 | 0.00 | 0.00 | 0.00 | 52 | 1015.8 |
| 20260505212917 | 13 | 244 | 17.7 | 30.6 | 0.00 | 0.00 | 0.00 | 52 | 1015.8 |
| 20260505212826 | 13 | 360 | 17.7 | 30.6 | 0.00 | 0.00 | 0.00 | 53 | 1015.8 |
| 20260505212716 | 13 | 240 | 19.3 | 30.6 | 0.00 | 0.00 | 0.00 | 52 | 1015.8 |
| 20260505212626 | 13 | 219 | 19.3 | 30.6 | 0.00 | 0.00 | 0.00 | 53 | 1015.8 |
| 20260505212519 | 13 | 238 | 16.1 | 30.6 | 0.00 | 0.00 | 0.00 | 52 | 1015.8 |
| 20260505212413 | 13 | 226 | 17.7 | 30.6 | 0.00 | 0.00 | 0.00 | 52 | 1015.8 |
| 20260505212326 | 13 | 229 | 20.9 | 30.6 | 0.00 | 0.00 | 0.00 | 52 | 1015.8 |
| 20260505212216 | 13 | 360 | 22.5 | 30.6 | 0.00 | 0.00 | 0.00 | 52 | 1015.8 |
| 20260505212126 | 13 | 231 | 20.9 | 30.6 | 0.00 | 0.00 | 0.00 | 52 | 1015.8 |
| 20260505212016 | 13 | 360 | 22.5 | 30.6 | 0.00 | 0.00 | 0.00 | 52 | 1015.8 |
| 20260505211930 | 13 | 211 | 20.9 | 30.6 | 0.00 | 0.00 | 0.00 | 52 | 1015.8 |
| 20260505211840 | 13 | 360 | 16.1 | 29.0 | 0.00 | 0.00 | 0.00 | 52 | 1015.8 |
| 20260505211722 | 13 | 360 | 12.9 | 35.4 | 0.00 | 0.00 | 0.00 | 53 | 1015.8 |
| 20260505211629 | 13 | 232 | 14.5 | 35.4 | 0.00 | 0.00 | 0.00 | 53 | 1015.8 |
| 20260505211527 | 13 | 209 | 17.7 | 35.4 | 0.00 | 0.00 | 0.00 | 52 | 1016.2 |
| 20260505211424 | 13 | 360 | 17.7 | 35.4 | 0.00 | 0.00 | 0.00 | 53 | 1016.2 |
| 20260505211320 | 13 | 360 | 19.3 | 35.4 | 0.00 | 0.00 | 0.00 | 53 | 1016.2 |
| 20260505211231 | 13 | 242 | 19.3 | 35.4 | 0.00 | 0.00 | 0.00 | 53 | 1016.2 |
| 20260505211121 | 13 | 200 | 19.3 | 35.4 | 0.00 | 0.00 | 0.00 | 53 | 1016.2 |
| 20260505211030 | 13 | 360 | 22.5 | 35.4 | 0.00 | 0.00 | 0.00 | 52 | 1016.2 |
| 20260505210927 | 13 | 360 | 22.5 | 35.4 | 0.00 | 0.00 | 0.00 | 52 | 1016.2 |
| 20260505210819 | 13 | 360 | 17.7 | 32.2 | 0.00 | 0.00 | 0.00 | 53 | 1016.2 |
| 20260505210713 | 13 | 225 | 12.9 | 30.6 | 0.00 | 0.00 | 0.00 | 52 | 1016.2 |
| 20260505210626 | 13 | 209 | 14.5 | 30.6 | 0.00 | 0.00 | 0.00 | 52 | 1016.2 |
| 20260505210516 | 13 | 238 | 16.1 | 30.6 | 0.00 | 0.00 | 0.00 | 52 | 1016.2 |
| 20260505210426 | 13 | 214 | 17.7 | 30.6 | 0.00 | 0.00 | 0.00 | 52 | 1016.2 |
| 20260505210316 | 13 | 230 | 14.5 | 35.4 | 0.00 | 0.00 | 0.00 | 52 | 1016.2 |
| 20260505210230 | 13 | 212 | 16.1 | 35.4 | 0.00 | 0.00 | 0.00 | 52 | 1016.2 |
| 20260505210128 | 13 | 267 | 19.3 | 35.4 | 0.00 | 0.00 | 0.00 | 51 | 1016.2 |
| 20260505210029 | 13 | 243 | 20.9 | 35.4 | 0.00 | 0.00 | 0.00 | 52 | 1016.4 |
| 20260505205919 | 13 | 214 | 17.7 | 35.4 | 0.00 | 0.00 | 0.00 | 52 | 1016.4 |
| 20260505205832 | 13 | 360 | 17.7 | 35.4 | 0.00 | 0.00 | 0.00 | 52 | 1016.4 |
| 20260505205726 | 13 | 227 | 22.5 | 35.4 | 0.00 | 0.00 | 0.00 | 52 | 1016.4 |
| 20260505205616 | 13 | 360 | 19.3 | 35.4 | 0.00 | 0.00 | 0.00 | 52 | 1016.4 |
| 20260505205546 | 13 | 228 | 16.1 | 35.4 | 0.00 | 0.00 | 0.00 | 53 | 1016.4 |
| 20260505205428 | 13 | 215 | 16.1 | 29.0 | 0.00 | 0.00 | 0.00 | 53 | 1016.4 |
| 20260505205338 | 13 | 222 | 17.7 | 29.0 | 0.00 | 0.00 | 0.00 | 53 | 1016.4 |
| 20260505205220 | 13 | 236 | 19.3 | 29.0 | 0.00 | 0.00 | 0.00 | 54 | 1016.4 |
| 20260505205114 | 13 | 360 | 17.7 | 29.0 | 0.00 | 0.00 | 0.00 | 54 | 1016.4 |
| 20260505205023 | 13 | 221 | 17.7 | 29.0 | 0.00 | 0.00 | 0.00 | 54 | 1016.4 |
| 20260505204917 | 13 | 360 | 17.7 | 30.6 | 0.00 | 0.00 | 0.00 | 54 | 1016.4 |
| 20260505204829 | 13 | 246 | 17.7 | 30.6 | 0.00 | 0.00 | 0.00 | 54 | 1016.4 |
| 20260505204717 | 13 | 360 | 14.5 | 30.6 | 0.00 | 0.00 | 0.00 | 55 | 1016.4 |
| 20260505204625 | 13 | 215 | 9.7 | 30.6 | 0.00 | 0.00 | 0.00 | 56 | 1016.4 |
| 20260505204531 | 12 | 360 | 8.0 | 30.6 | 0.00 | 0.00 | 0.00 | 56 | 1016.4 |
| 20260505204428 | 12 | 229 | 11.3 | 30.6 | 0.00 | 0.00 | 0.00 | 55 | 1016.4 |
| 20260505204323 | 12 | 211 | 17.7 | 30.6 | 0.00 | 0.00 | 0.00 | 55 | 1016.4 |
| 20260505204216 | 12 | 213 | 24.1 | 30.6 | 0.00 | 0.00 | 0.00 | 56 | 1016.4 |
| 20260505204132 | 12 | 219 | 24.1 | 30.6 | 0.00 | 0.00 | 0.00 | 56 | 1016.4 |
| 20260505204042 | 12 | 223 | 24.1 | 30.6 | 0.00 | 0.00 | 0.00 | 56 | 1016.4 |
| 20260505203922 | 12 | 218 | 22.5 | 35.4 | 0.00 | 0.00 | 0.00 | 56 | 1016.4 |
| 20260505203832 | 12 | 215 | 20.9 | 35.4 | 0.00 | 0.00 | 0.00 | 56 | 1016.4 |
| 20260505203722 | 12 | 227 | 19.3 | 35.4 | 0.00 | 0.00 | 0.00 | 57 | 1016.4 |
| 20260505203632 | 12 | 225 | 19.3 | 35.4 | 0.00 | 0.00 | 0.00 | 57 | 1016.4 |
| 20260505203522 | 12 | 230 | 17.7 | 35.4 | 0.00 | 0.00 | 0.00 | 58 | 1016.4 |
| 20260505203419 | 12 | 213 | 17.7 | 35.4 | 0.00 | 0.00 | 0.00 | 57 | 1016.4 |
| 20260505203329 | 12 | 223 | 20.9 | 37.0 | 0.00 | 0.00 | 0.00 | 57 | 1016.4 |
| 20260505203216 | 12 | 226 | 24.1 | 37.0 | 0.00 | 0.00 | 0.00 | 57 | 1016.4 |
| 20260505203125 | 12 | 360 | 24.1 | 37.0 | 0.00 | 0.00 | 0.00 | 57 | 1016.4 |
| 20260505203030 | 12 | 266 | 20.9 | 37.0 | 0.00 | 0.00 | 0.00 | 58 | 1016.8 |
| 20260505202919 | 12 | 236 | 19.3 | 37.0 | 0.00 | 0.00 | 0.00 | 58 | 1016.8 |
| 20260505202813 | 12 | 360 | 19.3 | 43.5 | 0.00 | 0.00 | 0.00 | 59 | 1016.8 |
| 20260505202743 | 12 | 254 | 20.9 | 43.5 | 0.00 | 0.00 | 0.00 | 58 | 1016.8 |
| 20260505202619 | 12 | 248 | 24.1 | 49.9 | 0.00 | 0.00 | 0.00 | 58 | 1016.8 |
| 20260505202529 | 12 | 244 | 25.7 | 49.9 | 0.00 | 0.00 | 0.00 | 58 | 1016.8 |
| 20260505202422 | 12 | 360 | 20.9 | 49.9 | 0.00 | 0.00 | 0.00 | 58 | 1016.8 |
| 20260505202316 | 12 | 243 | 20.9 | 49.9 | 0.00 | 0.00 | 0.00 | 59 | 1016.8 |
| 20260505202229 | 12 | 227 | 24.1 | 49.9 | 0.00 | 0.00 | 0.00 | 58 | 1016.8 |
| 20260505202139 | 12 | 360 | 25.7 | 49.9 | 0.00 | 0.00 | 0.00 | 58 | 1016.8 |
| 20260505202035 | 12 | 234 | 25.7 | 49.9 | 0.00 | 0.00 | 0.00 | 59 | 1016.8 |
| 20260505201931 | 12 | 229 | 29.0 | 49.9 | 0.00 | 0.00 | 0.00 | 58 | 1016.8 |
| 20260505201841 | 12 | 232 | 32.2 | 53.1 | 0.00 | 0.00 | 0.00 | 58 | 1016.8 |
| 20260505201715 | 12 | 360 | 27.4 | 53.1 | 0.00 | 0.00 | 0.00 | 58 | 1016.8 |
| 20260505201624 | 12 | 258 | 27.4 | 53.1 | 0.00 | 0.00 | 0.00 | 59 | 1016.8 |
| 20260505201526 | 12 | 225 | 27.4 | 53.1 | 0.00 | 0.00 | 0.00 | 58 | 1016.5 |
| 20260505201416 | 12 | 228 | 30.6 | 53.1 | 0.00 | 0.00 | 0.00 | 58 | 1016.5 |
| 20260505201329 | 11 | 227 | 29.0 | 53.1 | 0.00 | 0.00 | 0.00 | 58 | 1016.5 |
| 20260505201223 | 12 | 244 | 32.2 | 53.1 | 0.00 | 0.00 | 0.00 | 58 | 1016.5 |
| 20260505201133 | 12 | 229 | 33.8 | 53.1 | 0.00 | 0.00 | 0.00 | 58 | 1016.5 |
| 20260505201029 | 12 | 237 | 38.6 | 53.1 | 0.00 | 0.00 | 0.00 | 58 | 1016.5 |
| 20260505200919 | 12 | 360 | 37.0 | 51.5 | 0.00 | 0.00 | 0.00 | 58 | 1016.5 |
| 20260505200811 | 12 | 360 | 30.6 | 51.5 | 0.00 | 0.00 | 0.00 | 58 | 1016.5 |
| 20260505200729 | 12 | 360 | 29.0 | 45.1 | 0.00 | 0.00 | 0.00 | 57 | 1016.5 |
| 20260505200621 | 12 | 232 | 29.0 | 45.1 | 0.00 | 0.00 | 0.00 | 57 | 1016.5 |
| 20260505200531 | 12 | 238 | 29.0 | 46.7 | 0.00 | 0.00 | 0.00 | 57 | 1016.5 |
| 20260505200421 | 12 | 240 | 24.1 | 46.7 | 0.00 | 0.00 | 0.00 | 57 | 1016.5 |
| 20260505200314 | 11 | 229 | 29.0 | 51.5 | 0.00 | 0.00 | 0.00 | 57 | 1016.5 |
| 20260505200221 | 11 | 221 | 32.2 | 51.5 | 0.00 | 0.00 | 0.00 | 57 | 1016.5 |
| 20260505200138 | 11 | 360 | 35.4 | 53.1 | 0.00 | 0.00 | 0.00 | 57 | 1016.5 |
| 20260505200025 | 11 | 244 | 30.6 | 53.1 | 0.00 | 0.00 | 0.00 | 57 | 1016.5 |
| 20260505195915 | 11 | 360 | 27.4 | 53.1 | 0.00 | 0.00 | 0.00 | 58 | 1016.5 |
| 20260505195825 | 11 | 360 | 30.6 | 53.1 | 0.00 | 0.00 | 0.00 | 58 | 1016.5 |
| 20260505195718 | 11 | 235 | 27.4 | 53.1 | 0.00 | 0.00 | 0.00 | 58 | 1016.5 |
| 20260505195612 | 11 | 360 | 27.4 | 53.1 | 0.00 | 0.00 | 0.00 | 58 | 1016.5 |
| 20260505195525 | 11 | 360 | 33.8 | 53.1 | 0.00 | 0.00 | 0.00 | 58 | 1016.5 |
| 20260505195415 | 11 | 256 | 35.4 | 53.1 | 0.00 | 0.00 | 0.00 | 58 | 1016.5 |
| 20260505195325 | 11 | 245 | 35.4 | 53.1 | 0.00 | 0.00 | 0.00 | 59 | 1016.5 |
| 20260505195235 | 11 | 360 | 30.6 | 56.3 | 0.00 | 0.00 | 0.00 | 59 | 1016.5 |
| 20260505195135 | 11 | 246 | 30.6 | 56.3 | 0.00 | 0.00 | 0.00 | 59 | 1016.5 |
| 20260505195011 | 11 | 232 | 32.2 | 56.3 | 0.00 | 0.00 | 0.00 | 59 | 1016.5 |
| 20260505194923 | 11 | 360 | 32.2 | 56.3 | 0.00 | 0.00 | 0.00 | 59 | 1016.5 |
| 20260505194833 | 11 | 360 | 30.6 | 56.3 | 0.00 | 0.00 | 0.00 | 59 | 1016.5 |
| 20260505194721 | 11 | 213 | 30.6 | 56.3 | 0.00 | 0.00 | 0.00 | 59 | 1016.5 |
| 20260505194628 | 11 | 215 | 29.0 | 56.3 | 0.00 | 0.00 | 0.00 | 59 | 1016.5 |
| 20260505194514 | 11 | 237 | 35.4 | 56.3 | 0.00 | 0.00 | 0.00 | 59 | 1016.4 |
| 20260505194426 | 11 | 239 | 40.2 | 56.3 | 0.00 | 0.00 | 0.00 | 58 | 1016.4 |
| 20260505194316 | 11 | 247 | 40.2 | 54.7 | 0.00 | 0.00 | 0.00 | 58 | 1016.4 |
| 20260505194226 | 11 | 252 | 40.2 | 54.7 | 0.00 | 0.00 | 0.00 | 58 | 1016.4 |
| 20260505194136 | 11 | 215 | 37.0 | 54.7 | 0.00 | 0.00 | 0.00 | 59 | 1016.4 |
| 20260505194016 | 11 | 236 | 38.6 | 56.3 | 0.00 | 0.00 | 0.00 | 59 | 1016.4 |
| 20260505193929 | 11 | 360 | 35.4 | 56.3 | 0.00 | 0.00 | 0.00 | 59 | 1016.4 |
| 20260505193819 | 11 | 211 | 35.4 | 56.3 | 0.00 | 0.00 | 0.00 | 59 | 1016.4 |
| 20260505193729 | 11 | 238 | 37.0 | 56.3 | 0.00 | 0.00 | 0.00 | 58 | 1016.4 |
| 20260505193622 | 11 | 228 | 40.2 | 56.3 | 0.00 | 0.00 | 0.00 | 58 | 1016.4 |
| 20260505193516 | 12 | 233 | 38.6 | 53.1 | 0.00 | 0.00 | 0.00 | 57 | 1016.4 |
| 20260505193429 | 12 | 360 | 37.0 | 49.9 | 0.00 | 0.00 | 0.00 | 56 | 1016.4 |
| 20260505193325 | 12 | 228 | 30.6 | 51.5 | 0.00 | 0.00 | 0.00 | 56 | 1016.4 |
| 20260505193215 | 12 | 251 | 27.4 | 48.3 | 0.00 | 0.00 | 0.00 | 56 | 1016.4 |
| 20260505193144 | 12 | 263 | 29.0 | 48.3 | 0.00 | 0.00 | 0.00 | 56 | 1016.4 |
| 20260505193028 | 12 | 360 | 29.0 | 48.3 | 0.00 | 0.00 | 0.00 | 56 | 1016.3 |
| 20260505192922 | 11 | 360 | 29.0 | 48.3 | 0.00 | 0.00 | 0.00 | 57 | 1016.3 |
| 20260505192832 | 11 | 231 | 29.0 | 57.9 | 0.00 | 0.00 | 0.00 | 57 | 1016.3 |
| 20260505192722 | 11 | 249 | 33.8 | 57.9 | 0.00 | 0.00 | 0.00 | 57 | 1016.3 |
| 20260505192615 | 11 | 360 | 32.2 | 57.9 | 0.00 | 0.00 | 0.00 | 57 | 1016.3 |
| 20260505192525 | 11 | 250 | 32.2 | 57.9 | 0.00 | 0.00 | 0.00 | 57 | 1016.3 |
| 20260505192419 | 11 | 219 | 29.0 | 57.9 | 0.00 | 0.00 | 0.00 | 58 | 1016.3 |
| 20260505192329 | 11 | 234 | 29.0 | 57.9 | 0.00 | 0.00 | 0.00 | 59 | 1016.3 |
| 20260505192242 | 11 | 360 | 32.2 | 57.9 | 0.00 | 0.00 | 0.00 | 59 | 1016.3 |
| 20260505192118 | 11 | 360 | 32.2 | 57.9 | 0.00 | 0.00 | 0.00 | 58 | 1016.3 |
| 20260505192028 | 11 | 234 | 29.0 | 57.9 | 0.00 | 0.00 | 0.00 | 59 | 1016.3 |
| 20260505191938 | 11 | 360 | 25.7 | 56.3 | 0.00 | 0.00 | 0.00 | 59 | 1016.3 |
| 20260505191838 | 11 | 239 | 30.6 | 56.3 | 0.00 | 0.00 | 0.00 | 58 | 1016.3 |
| 20260505191717 | 11 | 253 | 35.4 | 56.3 | 0.00 | 0.00 | 0.00 | 58 | 1016.3 |
| 20260505191638 | 11 | 240 | 37.0 | 56.3 | 0.00 | 0.00 | 0.00 | 57 | 1016.3 |
| 20260505191517 | 11 | 224 | 40.2 | 56.3 | 0.00 | 0.00 | 0.00 | 57 | 1016.3 |
| 20260505191430 | 11 | 217 | 38.6 | 56.3 | 0.00 | 0.00 | 0.00 | 57 | 1016.3 |
| 20260505191324 | 11 | 241 | 33.8 | 56.3 | 0.00 | 0.00 | 0.00 | 56 | 1016.3 |
| 20260505191217 | 11 | 360 | 33.8 | 49.9 | 0.00 | 0.00 | 0.00 | 55 | 1016.3 |
| 20260505191127 | 11 | 360 | 30.6 | 49.9 | 0.00 | 0.00 | 0.00 | 55 | 1016.3 |
| 20260505191017 | 11 | 360 | 29.0 | 49.9 | 0.00 | 0.00 | 0.00 | 55 | 1016.3 |
| 20260505190910 | 11 | 257 | 25.7 | 41.8 | 0.00 | 0.00 | 0.00 | 55 | 1016.3 |
| 20260505190827 | 11 | 214 | 22.5 | 41.8 | 0.00 | 0.00 | 0.00 | 56 | 1016.3 |
| 20260505190720 | 11 | 219 | 24.1 | 41.8 | 0.00 | 0.00 | 0.00 | 56 | 1016.3 |
| 20260505190616 | 11 | 180 | 20.9 | 41.8 | 0.00 | 0.00 | 0.00 | 57 | 1016.3 |
| 20260505190512 | 11 | 213 | 17.7 | 35.4 | 0.00 | 0.00 | 0.00 | 58 | 1016.3 |
| 20260505190425 | 11 | 226 | 17.7 | 32.2 | 0.00 | 0.00 | 0.00 | 58 | 1016.3 |
| 20260505190321 | 11 | 226 | 19.3 | 32.2 | 0.00 | 0.00 | 0.00 | 57 | 1016.3 |
| 20260505190215 | 11 | 209 | 19.3 | 33.8 | 0.00 | 0.00 | 0.00 | 58 | 1016.3 |
| 20260505190139 | 11 | 360 | 17.7 | 27.4 | 0.00 | 0.00 | 0.00 | 58 | 1016.3 |
| 20260505190017 | 11 | 227 | 19.3 | 27.4 | 0.00 | 0.00 | 0.00 | 58 | 1016.5 |
| 20260505185927 | 11 | 221 | 19.3 | 27.4 | 0.00 | 0.00 | 0.00 | 58 | 1016.5 |
| 20260505185826 | 11 | 224 | 17.7 | 32.2 | 0.00 | 0.00 | 0.00 | 59 | 1016.5 |
| 20260505185729 | 11 | 211 | 17.7 | 38.6 | 0.00 | 0.00 | 0.00 | 59 | 1016.5 |
| 20260505185639 | 11 | 206 | 19.3 | 46.7 | 0.00 | 0.00 | 0.00 | 59 | 1016.5 |
| 20260505185521 | 11 | 202 | 17.7 | 46.7 | 0.00 | 0.00 | 0.00 | 60 | 1016.5 |
| 20260505185411 | 11 | 234 | 14.5 | 46.7 | 0.00 | 0.00 | 0.00 | 60 | 1016.5 |
| 20260505185324 | 11 | 210 | 17.7 | 46.7 | 0.00 | 0.00 | 0.00 | 59 | 1016.5 |
| 20260505185214 | 11 | 218 | 22.5 | 46.7 | 0.00 | 0.00 | 0.00 | 58 | 1016.5 |
| 20260505185128 | 11 | 217 | 24.1 | 46.7 | 0.00 | 0.00 | 0.00 | 59 | 1016.5 |
| 20260505185018 | 11 | 246 | 27.4 | 46.7 | 0.00 | 0.00 | 0.00 | 58 | 1016.5 |
| 20260505184931 | 11 | 227 | 30.6 | 46.7 | 0.00 | 0.00 | 0.00 | 58 | 1016.5 |
| 20260505184821 | 11 | 242 | 30.6 | 48.3 | 0.00 | 0.00 | 0.00 | 58 | 1016.5 |
| 20260505184731 | 11 | 360 | 25.7 | 48.3 | 0.00 | 0.00 | 0.00 | 57 | 1016.5 |
| 20260505184622 | 11 | 360 | 20.9 | 48.3 | 0.00 | 0.00 | 0.00 | 57 | 1016.5 |
| 20260505184524 | 11 | 360 | 17.7 | 48.3 | 0.00 | 0.00 | 0.00 | 56 | 1016.4 |
| 20260505184420 | 11 | 360 | 17.7 | 48.3 | 0.00 | 0.00 | 0.00 | 55 | 1016.4 |
| 20260505184310 | 11 | 360 | 22.5 | 48.3 | 0.00 | 0.00 | 0.00 | 55 | 1016.4 |
| 20260505184230 | 11 | 360 | 27.4 | 48.3 | 0.00 | 0.00 | 0.00 | 55 | 1016.4 |
| 20260505184122 | 11 | 360 | 30.6 | 48.3 | 0.00 | 0.00 | 0.00 | 54 | 1016.4 |
| 20260505184019 | 11 | 360 | 32.2 | 48.3 | 0.00 | 0.00 | 0.00 | 53 | 1016.4 |
| 20260505183929 | 12 | 291 | 25.7 | 48.3 | 0.00 | 0.00 | 0.00 | 53 | 1016.4 |
| 20260505183825 | 12 | 286 | 25.7 | 48.3 | 0.00 | 0.00 | 0.00 | 53 | 1016.4 |
| 20260505183715 | 12 | 275 | 32.2 | 48.3 | 0.00 | 0.00 | 0.00 | 52 | 1016.4 |
| 20260505183631 | 12 | 360 | 35.4 | 48.3 | 0.00 | 0.00 | 0.00 | 50 | 1016.4 |
| 20260505183525 | 12 | 276 | 33.8 | 48.3 | 0.00 | 0.00 | 0.00 | 50 | 1016.4 |
| 20260505183415 | 12 | 360 | 32.2 | 48.3 | 0.00 | 0.00 | 0.00 | 50 | 1016.4 |
| 20260505183325 | 12 | 360 | 30.6 | 48.3 | 0.00 | 0.00 | 0.00 | 50 | 1016.4 |
| 20260505183221 | 12 | 281 | 24.1 | 41.8 | 0.00 | 0.00 | 0.00 | 49 | 1016.4 |
| 20260505183142 | 12 | 292 | 19.3 | 37.0 | 0.00 | 0.00 | 0.00 | 48 | 1016.4 |
| 20260505183021 | 12 | 360 | 14.5 | 30.6 | 0.00 | 0.00 | 0.00 | 47 | 1016.2 |
| 20260505182924 | 12 | 266 | 12.9 | 29.0 | 0.00 | 0.00 | 0.00 | 45 | 1016.2 |
| 20260505182814 | 12 | 274 | 14.5 | 29.0 | 0.00 | 0.00 | 0.00 | 45 | 1016.2 |
| 20260505182724 | 12 | 263 | 16.1 | 29.0 | 0.00 | 0.00 | 0.00 | 45 | 1016.2 |
| 20260505182620 | 12 | 271 | 14.5 | 29.0 | 0.00 | 0.00 | 0.00 | 45 | 1016.2 |
| 20260505182513 | 12 | 257 | 14.5 | 29.0 | 0.00 | 0.00 | 0.00 | 45 | 1016.2 |
| 20260505182427 | 12 | 243 | 16.1 | 29.0 | 0.00 | 0.00 | 0.00 | 45 | 1016.2 |
| 20260505182323 | 12 | 360 | 19.3 | 32.2 | 0.00 | 0.00 | 0.00 | 45 | 1016.2 |
| 20260505182233 | 12 | 190 | 19.3 | 32.2 | 0.00 | 0.00 | 0.00 | 45 | 1016.2 |
| 20260505182129 | 12 | 220 | 20.9 | 32.2 | 0.00 | 0.00 | 0.00 | 45 | 1016.2 |
| 20260505182019 | 12 | 232 | 20.9 | 32.2 | 0.00 | 0.00 | 0.00 | 45 | 1016.2 |
| 20260505181932 | 12 | 360 | 19.3 | 32.2 | 0.00 | 0.00 | 0.00 | 45 | 1016.2 |
| 20260505181826 | 12 | 227 | 19.3 | 32.2 | 0.00 | 0.00 | 0.00 | 45 | 1016.2 |
| 20260505181719 | 12 | 360 | 19.3 | 32.2 | 0.00 | 0.00 | 0.00 | 45 | 1016.2 |
| 20260505181640 | 12 | 259 | 19.3 | 32.2 | 0.00 | 0.00 | 0.00 | 45 | 1016.2 |
| 20260505181519 | 12 | 204 | 19.3 | 27.4 | 0.00 | 0.00 | 0.00 | 44 | 1016.7 |
| 20260505181429 | 12 | 200 | 19.3 | 27.4 | 0.00 | 0.00 | 0.00 | 45 | 1016.7 |
| 20260505181329 | 12 | 227 | 19.3 | 27.4 | 0.00 | 0.00 | 0.00 | 45 | 1016.7 |
| 20260505181222 | 12 | 216 | 19.3 | 27.4 | 0.00 | 0.00 | 0.00 | 44 | 1016.7 |
| 20260505181132 | 12 | 209 | 17.7 | 30.6 | 0.00 | 0.00 | 0.00 | 44 | 1016.7 |
| 20260505181014 | 12 | 360 | 14.5 | 30.6 | 0.00 | 0.00 | 0.00 | 44 | 1016.7 |
| 20260505180910 | 12 | 239 | 11.3 | 30.6 | 0.00 | 0.00 | 0.00 | 45 | 1016.7 |
| 20260505180829 | 12 | 251 | 12.9 | 30.6 | 0.00 | 0.00 | 0.00 | 45 | 1016.7 |
| 20260505180726 | 12 | 360 | 12.9 | 30.6 | 0.00 | 0.00 | 0.00 | 45 | 1016.7 |
| 20260505180616 | 12 | 360 | 16.1 | 30.6 | 0.00 | 0.00 | 0.00 | 44 | 1016.7 |
| 20260505180529 | 12 | 360 | 17.7 | 30.6 | 0.00 | 0.00 | 0.00 | 44 | 1016.7 |
| 20260505180419 | 12 | 232 | 19.3 | 32.2 | 0.00 | 0.00 | 0.00 | 44 | 1016.7 |
| 20260505180329 | 12 | 360 | 17.7 | 32.2 | 0.00 | 0.00 | 0.00 | 44 | 1016.7 |
| 20260505180220 | 12 | 237 | 16.1 | 32.2 | 0.00 | 0.00 | 0.00 | 45 | 1016.7 |
| 20260505180130 | 12 | 223 | 14.5 | 32.2 | 0.00 | 0.00 | 0.00 | 44 | 1016.7 |
| 20260505180029 | 12 | 267 | 14.5 | 32.2 | 0.00 | 0.00 | 0.00 | 45 | 1016.6 |
| 20260505175919 | 12 | 226 | 14.5 | 32.2 | 0.00 | 0.00 | 0.00 | 45 | 1016.6 |
| 20260505175829 | 12 | 238 | 14.5 | 32.2 | 0.00 | 0.00 | 0.00 | 45 | 1016.6 |
| 20260505175739 | 12 | 360 | 17.7 | 32.2 | 0.00 | 0.00 | 0.00 | 45 | 1016.6 |
| 20260505175639 | 12 | 360 | 17.7 | 32.2 | 0.00 | 0.00 | 0.00 | 45 | 1016.6 |
| 20260505175535 | 12 | 360 | 16.1 | 32.2 | 0.00 | 0.00 | 0.00 | 45 | 1016.6 |
| 20260505175417 | 12 | 244 | 16.1 | 35.4 | 0.00 | 0.00 | 0.00 | 45 | 1016.6 |
| 20260505175327 | 12 | 267 | 16.1 | 41.8 | 0.00 | 0.00 | 0.00 | 44 | 1016.6 |
| 20260505175237 | 12 | 225 | 17.7 | 41.8 | 0.00 | 0.00 | 0.00 | 44 | 1016.6 |
| 20260505175133 | 12 | 234 | 17.7 | 41.8 | 0.00 | 0.00 | 0.00 | 44 | 1016.6 |
| 20260505175015 | 12 | 211 | 20.9 | 41.8 | 0.00 | 0.00 | 0.00 | 44 | 1016.6 |
| 20260505174929 | 12 | 228 | 19.3 | 41.8 | 0.00 | 0.00 | 0.00 | 44 | 1016.6 |
| 20260505174825 | 12 | 360 | 19.3 | 41.8 | 0.00 | 0.00 | 0.00 | 45 | 1016.6 |
| 20260505174718 | 12 | 223 | 25.7 | 41.8 | 0.00 | 0.00 | 0.00 | 44 | 1016.6 |
| 20260505174625 | 12 | 227 | 29.0 | 41.8 | 0.00 | 0.00 | 0.00 | 44 | 1016.6 |
| 20260505174510 | 12 | 360 | 25.7 | 41.8 | 0.00 | 0.00 | 0.00 | 44 | 1016.6 |
| 20260505174423 | 12 | 360 | 19.3 | 41.8 | 0.00 | 0.00 | 0.00 | 44 | 1016.6 |
| 20260505174317 | 12 | 360 | 17.7 | 33.8 | 0.00 | 0.00 | 0.00 | 44 | 1016.6 |
| 20260505174213 | 12 | 242 | 19.3 | 33.8 | 0.00 | 0.00 | 0.00 | 44 | 1016.6 |
| 20260505174123 | 12 | 360 | 19.3 | 33.8 | 0.00 | 0.00 | 0.00 | 44 | 1016.6 |
| 20260505174033 | 12 | 360 | 19.3 | 33.8 | 0.00 | 0.00 | 0.00 | 44 | 1016.6 |
| 20260505173929 | 12 | 234 | 20.9 | 33.8 | 0.00 | 0.00 | 0.00 | 44 | 1016.6 |
| 20260505173826 | 12 | 360 | 20.9 | 33.8 | 0.00 | 0.00 | 0.00 | 43 | 1016.6 |
| 20260505173722 | 12 | 360 | 20.9 | 33.8 | 0.00 | 0.00 | 0.00 | 43 | 1016.6 |
| 20260505173632 | 12 | 266 | 22.5 | 33.8 | 0.00 | 0.00 | 0.00 | 43 | 1016.6 |
| 20260505173522 | 12 | 360 | 25.7 | 33.8 | 0.00 | 0.00 | 0.00 | 43 | 1016.6 |
| 20260505173418 | 12 | 360 | 22.5 | 33.8 | 0.00 | 0.00 | 0.00 | 43 | 1016.6 |
| 20260505173328 | 12 | 248 | 20.9 | 33.8 | 0.00 | 0.00 | 0.00 | 43 | 1016.6 |
| 20260505173216 | 12 | 360 | 19.3 | 35.4 | 0.00 | 0.00 | 0.00 | 43 | 1016.6 |
| 20260505173129 | 12 | 360 | 17.7 | 35.4 | 0.00 | 0.00 | 0.00 | 42 | 1016.6 |
| 20260505173028 | 12 | 360 | 19.3 | 37.0 | 0.00 | 0.00 | 0.00 | 42 | 1016.4 |
| 20260505172918 | 12 | 266 | 20.9 | 37.0 | 0.00 | 0.00 | 0.00 | 42 | 1016.4 |
| 20260505172828 | 12 | 360 | 22.5 | 37.0 | 0.00 | 0.00 | 0.00 | 42 | 1016.4 |
| 20260505172725 | 13 | 254 | 25.7 | 37.0 | 0.00 | 0.00 | 0.00 | 42 | 1016.4 |
| 20260505172630 | 13 | 360 | 25.7 | 37.0 | 0.00 | 0.00 | 0.00 | 42 | 1016.4 |
| 20260505172540 | 13 | 202 | 25.7 | 37.0 | 0.00 | 0.00 | 0.00 | 42 | 1016.4 |
| 20260505172416 | 13 | 238 | 25.7 | 40.2 | 0.00 | 0.00 | 0.00 | 42 | 1016.4 |
| 20260505172326 | 13 | 235 | 25.7 | 40.2 | 0.00 | 0.00 | 0.00 | 42 | 1016.4 |
| 20260505172219 | 13 | 360 | 22.5 | 40.2 | 0.00 | 0.00 | 0.00 | 43 | 1016.4 |
| 20260505172133 | 13 | 239 | 20.9 | 40.2 | 0.00 | 0.00 | 0.00 | 43 | 1016.4 |
| 20260505172043 | 13 | 360 | 20.9 | 40.2 | 0.00 | 0.00 | 0.00 | 43 | 1016.4 |
| 20260505171922 | 13 | 238 | 24.1 | 40.2 | 0.00 | 0.00 | 0.00 | 43 | 1016.4 |
| 20260505171815 | 13 | 236 | 24.1 | 40.2 | 0.00 | 0.00 | 0.00 | 43 | 1016.4 |
| 20260505171716 | 13 | 229 | 25.7 | 40.2 | 0.00 | 0.00 | 0.00 | 42 | 1016.4 |
| 20260505171630 | 13 | 360 | 27.4 | 40.2 | 0.00 | 0.00 | 0.00 | 42 | 1016.4 |
| 20260505171529 | 13 | 360 | 25.7 | 40.2 | 0.00 | 0.00 | 0.00 | 42 | 1016.3 |
| 20260505171439 | 13 | 360 | 22.5 | 40.2 | 0.00 | 0.00 | 0.00 | 42 | 1016.3 |
| 20260505171321 | 13 | 231 | 22.5 | 40.2 | 0.00 | 0.00 | 0.00 | 42 | 1016.3 |
| 20260505171231 | 13 | 215 | 24.1 | 40.2 | 0.00 | 0.00 | 0.00 | 42 | 1016.3 |
| 20260505171130 | 13 | 220 | 24.1 | 40.2 | 0.00 | 0.00 | 0.00 | 42 | 1016.3 |
| 20260505171024 | 13 | 360 | 25.7 | 40.2 | 0.00 | 0.00 | 0.00 | 43 | 1016.3 |
| 20260505170917 | 13 | 360 | 24.1 | 40.2 | 0.00 | 0.00 | 0.00 | 43 | 1016.3 |
| 20260505170827 | 13 | 259 | 25.7 | 40.2 | 0.00 | 0.00 | 0.00 | 43 | 1016.3 |
| 20260505170737 | 13 | 360 | 25.7 | 41.8 | 0.00 | 0.00 | 0.00 | 43 | 1016.3 |
| 20260505170633 | 13 | 360 | 27.4 | 41.8 | 0.00 | 0.00 | 0.00 | 43 | 1016.3 |
| 20260505170527 | 13 | 225 | 24.1 | 41.8 | 0.00 | 0.00 | 0.00 | 43 | 1016.3 |
| 20260505170423 | 13 | 360 | 22.5 | 41.8 | 0.00 | 0.00 | 0.00 | 42 | 1016.3 |
| 20260505170319 | 13 | 237 | 25.7 | 41.8 | 0.00 | 0.00 | 0.00 | 41 | 1016.3 |
| 20260505170212 | 13 | 217 | 29.0 | 41.8 | 0.00 | 0.00 | 0.00 | 41 | 1016.3 |
| 20260505170136 | 13 | 360 | 29.0 | 41.8 | 0.00 | 0.00 | 0.00 | 41 | 1016.3 |
| 20260505170024 | 13 | 360 | 24.1 | 37.0 | 0.00 | 0.00 | 0.00 | 42 | 1016.3 |
| 20260505165918 | 13 | 230 | 27.4 | 37.0 | 0.00 | 0.00 | 0.00 | 41 | 1016.3 |
| 20260505165814 | 13 | 360 | 25.7 | 35.4 | 0.00 | 0.00 | 0.00 | 41 | 1016.3 |
| 20260505165744 | 13 | 252 | 24.1 | 35.4 | 0.00 | 0.00 | 0.00 | 41 | 1016.3 |
| 20260505165620 | 13 | 239 | 22.5 | 33.8 | 0.00 | 0.00 | 0.00 | 41 | 1016.3 |
| 20260505165530 | 13 | 360 | 24.1 | 33.8 | 0.00 | 0.00 | 0.00 | 41 | 1016.3 |
| 20260505165423 | 13 | 226 | 20.9 | 32.2 | 0.00 | 0.00 | 0.00 | 42 | 1016.3 |
| 20260505165320 | 13 | 360 | 17.7 | 32.2 | 0.00 | 0.00 | 0.00 | 42 | 1016.3 |
| 20260505165230 | 13 | 236 | 17.7 | 32.2 | 0.00 | 0.00 | 0.00 | 43 | 1016.3 |
| 20260505165120 | 13 | 232 | 19.3 | 33.8 | 0.00 | 0.00 | 0.00 | 43 | 1016.3 |
| 20260505165030 | 13 | 360 | 20.9 | 33.8 | 0.00 | 0.00 | 0.00 | 42 | 1016.3 |
| 20260505164923 | 12 | 215 | 22.5 | 37.0 | 0.00 | 0.00 | 0.00 | 42 | 1016.3 |
| 20260505164817 | 12 | 360 | 22.5 | 37.0 | 0.00 | 0.00 | 0.00 | 42 | 1016.3 |
| 20260505164724 | 12 | 360 | 22.5 | 37.0 | 0.00 | 0.00 | 0.00 | 42 | 1016.3 |
| 20260505164634 | 12 | 360 | 22.5 | 37.0 | 0.00 | 0.00 | 0.00 | 42 | 1016.3 |
| 20260505164516 | 12 | 228 | 22.5 | 37.0 | 0.00 | 0.00 | 0.00 | 43 | 1016.3 |
| 20260505164426 | 12 | 360 | 24.1 | 37.0 | 0.00 | 0.00 | 0.00 | 43 | 1016.3 |
| 20260505164323 | 12 | 360 | 25.7 | 37.0 | 0.00 | 0.00 | 0.00 | 42 | 1016.3 |
| 20260505164233 | 12 | 240 | 27.4 | 37.0 | 0.00 | 0.00 | 0.00 | 42 | 1016.3 |
| 20260505164129 | 12 | 197 | 25.7 | 37.0 | 0.00 | 0.00 | 0.00 | 42 | 1016.3 |
| 20260505164025 | 12 | 239 | 24.1 | 37.0 | 0.00 | 0.00 | 0.00 | 42 | 1016.3 |
| 20260505163924 | 12 | 236 | 19.3 | 30.6 | 0.00 | 0.00 | 0.00 | 41 | 1016.3 |
| 20260505163817 | 12 | 360 | 19.3 | 29.0 | 0.00 | 0.00 | 0.00 | 42 | 1016.3 |
| 20260505163731 | 12 | 360 | 19.3 | 29.0 | 0.00 | 0.00 | 0.00 | 42 | 1016.3 |
| 20260505163627 | 12 | 360 | 19.3 | 29.0 | 0.00 | 0.00 | 0.00 | 41 | 1016.3 |
| 20260505163537 | 12 | 224 | 19.3 | 29.0 | 0.00 | 0.00 | 0.00 | 41 | 1016.3 |
| 20260505163416 | 12 | 360 | 17.7 | 29.0 | 0.00 | 0.00 | 0.00 | 42 | 1016.3 |
| 20260505163329 | 12 | 244 | 17.7 | 33.8 | 0.00 | 0.00 | 0.00 | 42 | 1016.3 |
| 20260505163223 | 12 | 211 | 17.7 | 33.8 | 0.00 | 0.00 | 0.00 | 42 | 1016.3 |
| 20260505163133 | 12 | 360 | 17.7 | 33.8 | 0.00 | 0.00 | 0.00 | 42 | 1016.3 |
| 20260505163032 | 12 | 232 | 17.7 | 33.8 | 0.00 | 0.00 | 0.00 | 42 | 1016.3 |
| 20260505162931 | 12 | 243 | 17.7 | 33.8 | 0.00 | 0.00 | 0.00 | 42 | 1016.3 |
| 20260505162821 | 12 | 238 | 20.9 | 33.8 | 0.00 | 0.00 | 0.00 | 42 | 1016.3 |
| 20260505162731 | 12 | 360 | 24.1 | 33.8 | 0.00 | 0.00 | 0.00 | 42 | 1016.3 |
| 20260505162631 | 12 | 360 | 25.7 | 33.8 | 0.00 | 0.00 | 0.00 | 42 | 1016.3 |
| 20260505162527 | 12 | 238 | 22.5 | 33.8 | 0.00 | 0.00 | 0.00 | 42 | 1016.3 |
| 20260505162417 | 12 | 360 | 19.3 | 33.8 | 0.00 | 0.00 | 0.00 | 41 | 1016.3 |
| 20260505162325 | 12 | 227 | 17.7 | 35.4 | 0.00 | 0.00 | 0.00 | 41 | 1016.3 |
| 20260505162216 | 12 | 360 | 22.5 | 40.2 | 0.00 | 0.00 | 0.00 | 40 | 1016.3 |
| 20260505162132 | 12 | 229 | 24.1 | 40.2 | 0.00 | 0.00 | 0.00 | 40 | 1016.3 |
| 20260505162026 | 12 | 227 | 24.1 | 40.2 | 0.00 | 0.00 | 0.00 | 41 | 1016.3 |
| 20260505161919 | 12 | 360 | 24.1 | 40.2 | 0.00 | 0.00 | 0.00 | 41 | 1016.3 |
| 20260505161829 | 12 | 360 | 25.7 | 40.2 | 0.00 | 0.00 | 0.00 | 41 | 1016.3 |
| 20260505161719 | 12 | 360 | 25.7 | 40.2 | 0.00 | 0.00 | 0.00 | 42 | 1016.3 |
| 20260505161649 | 12 | 360 | 27.4 | 40.2 | 0.00 | 0.00 | 0.00 | 42 | 1016.3 |
| 20260505161520 | 12 | 360 | 29.0 | 45.1 | 0.00 | 0.00 | 0.00 | 42 | 1016.5 |
| 20260505161414 | 12 | 360 | 27.4 | 45.1 | 0.00 | 0.00 | 0.00 | 42 | 1016.5 |
| 20260505161324 | 12 | 236 | 27.4 | 45.1 | 0.00 | 0.00 | 0.00 | 42 | 1016.5 |
| 20260505161214 | 12 | 360 | 27.4 | 45.1 | 0.00 | 0.00 | 0.00 | 42 | 1016.5 |
| 20260505161127 | 12 | 222 | 27.4 | 45.1 | 0.00 | 0.00 | 0.00 | 42 | 1016.5 |
| 20260505161017 | 12 | 239 | 27.4 | 45.1 | 0.00 | 0.00 | 0.00 | 40 | 1016.5 |
| 20260505160931 | 12 | 360 | 29.0 | 45.1 | 0.00 | 0.00 | 0.00 | 39 | 1016.5 |
| 20260505160823 | 12 | 248 | 30.6 | 45.1 | 0.00 | 0.00 | 0.00 | 39 | 1016.5 |
| 20260505160733 | 12 | 233 | 27.4 | 45.1 | 0.00 | 0.00 | 0.00 | 39 | 1016.5 |
| 20260505160629 | 12 | 242 | 25.7 | 45.1 | 0.00 | 0.00 | 0.00 | 40 | 1016.5 |
| 20260505160528 | 12 | 215 | 24.1 | 35.4 | 0.00 | 0.00 | 0.00 | 39 | 1016.5 |
| 20260505160424 | 12 | 360 | 27.4 | 35.4 | 0.00 | 0.00 | 0.00 | 40 | 1016.5 |
| 20260505160318 | 12 | 232 | 24.1 | 35.4 | 0.00 | 0.00 | 0.00 | 40 | 1016.5 |
| 20260505160214 | 12 | 236 | 22.5 | 35.4 | 0.00 | 0.00 | 0.00 | 40 | 1016.5 |
| 20260505160136 | 12 | 216 | 22.5 | 35.4 | 0.00 | 0.00 | 0.00 | 40 | 1016.5 |
| 20260505153323 | 12 | 360 | 20.9 | 29.0 | 0.00 | 0.00 | 0.00 | 39 | 1016.4 |
| 20260505153224 | 12 | 360 | 20.9 | 29.0 | 0.00 | 0.00 | 0.00 | 39 | 1016.4 |
| 20260505153134 | 12 | 360 | 20.9 | 29.0 | 0.00 | 0.00 | 0.00 | 39 | 1016.4 |
| 20260505153020 | 12 | 360 | 19.3 | 29.0 | 0.00 | 0.00 | 0.00 | 40 | 1016.3 |
| 20260505152933 | 12 | 246 | 19.3 | 29.0 | 0.00 | 0.00 | 0.00 | 40 | 1016.3 |
| 20260505152823 | 12 | 360 | 19.3 | 32.2 | 0.00 | 0.00 | 0.00 | 40 | 1016.3 |
| 20260505152713 | 12 | 360 | 20.9 | 32.2 | 0.00 | 0.00 | 0.00 | 40 | 1016.3 |
| 20260505152646 | 12 | 211 | 20.9 | 32.2 | 0.00 | 0.00 | 0.00 | 40 | 1016.3 |
| 20260505152542 | 12 | 360 | 19.3 | 32.2 | 0.00 | 0.00 | 0.00 | 40 | 1016.3 |
| 20260505152445 | 12 | 360 | 19.3 | 32.2 | 0.00 | 0.00 | 0.00 | 40 | 1016.3 |
| 20260505152341 | 12 | 360 | 19.3 | 32.2 | 0.00 | 0.00 | 0.00 | 40 | 1016.3 |
| 20260505152217 | 12 | 225 | 19.3 | 32.2 | 0.00 | 0.00 | 0.00 | 40 | 1016.3 |
| 20260505152127 | 12 | 360 | 17.7 | 32.2 | 0.00 | 0.00 | 0.00 | 40 | 1016.3 |
| 20260505152020 | 12 | 191 | 16.1 | 25.7 | 0.00 | 0.00 | 0.00 | 41 | 1016.3 |
| 20260505151914 | 12 | 217 | 14.5 | 25.7 | 0.00 | 0.00 | 0.00 | 40 | 1016.3 |
| 20260505151844 | 12 | 360 | 14.5 | 25.7 | 0.00 | 0.00 | 0.00 | 41 | 1016.3 |
| 20260505151731 | 12 | 229 | 14.5 | 25.7 | 0.00 | 0.00 | 0.00 | 40 | 1016.3 |
| 20260505151627 | 12 | 217 | 16.1 | 25.7 | 0.00 | 0.00 | 0.00 | 40 | 1016.3 |
| 20260505151546 | 12 | 193 | 16.1 | 25.7 | 0.00 | 0.00 | 0.00 | 40 | 1016.3 |
| 20260505151422 | 12 | 193 | 12.9 | 27.4 | 0.00 | 0.00 | 0.00 | 40 | 1016.3 |
| 20260505151319 | 12 | 209 | 9.7 | 22.5 | 0.00 | 0.00 | 0.00 | 41 | 1016.3 |
| 20260505151229 | 12 | 238 | 11.3 | 22.5 | 0.00 | 0.00 | 0.00 | 41 | 1016.3 |
| 20260505151122 | 12 | 360 | 12.9 | 22.5 | 0.00 | 0.00 | 0.00 | 41 | 1016.3 |
| 20260505151035 | 12 | 221 | 12.9 | 22.5 | 0.00 | 0.00 | 0.00 | 41 | 1016.3 |
| 20260505150914 | 12 | 245 | 14.5 | 22.5 | 0.00 | 0.00 | 0.00 | 40 | 1016.3 |
| 20260505150827 | 12 | 232 | 14.5 | 24.1 | 0.00 | 0.00 | 0.00 | 41 | 1016.3 |
| 20260505150721 | 12 | 360 | 14.5 | 24.1 | 0.00 | 0.00 | 0.00 | 41 | 1016.3 |
| 20260505150631 | 12 | 360 | 16.1 | 24.1 | 0.00 | 0.00 | 0.00 | 41 | 1016.3 |
| 20260505150521 | 12 | 222 | 17.7 | 24.1 | 0.00 | 0.00 | 0.00 | 41 | 1016.3 |
| 20260505150431 | 12 | 221 | 16.1 | 24.1 | 0.00 | 0.00 | 0.00 | 41 | 1016.3 |
| 20260505150313 | 12 | 227 | 16.1 | 24.1 | 0.00 | 0.00 | 0.00 | 41 | 1016.3 |
| 20260505150221 | 12 | 360 | 17.7 | 24.1 | 0.00 | 0.00 | 0.00 | 41 | 1016.3 |
| 20260505150131 | 12 | 360 | 17.7 | 24.1 | 0.00 | 0.00 | 0.00 | 41 | 1016.3 |
| 20260505140625 | 12 | 360 | 17.7 | 29.0 | 0.00 | 0.00 | 0.00 | 43 | 1016.8 |
| 20260505140534 | 12 | 215 | 16.1 | 29.0 | 0.00 | 0.00 | 0.00 | 43 | 1016.8 |
| 20260505140430 | 12 | 226 | 16.1 | 29.0 | 0.00 | 0.00 | 0.00 | 43 | 1016.8 |
| 20260505140320 | 12 | 248 | 16.1 | 29.0 | 0.00 | 0.00 | 0.00 | 43 | 1016.8 |
| 20260505140216 | 12 | 228 | 19.3 | 38.6 | 0.00 | 0.00 | 0.00 | 43 | 1016.8 |
| 20260505140142 | 12 | 238 | 20.9 | 38.6 | 0.00 | 0.00 | 0.00 | 43 | 1016.8 |
| 20260505130219 | 13 | 235 | 16.1 | 30.6 | 0.00 | 0.00 | 0.00 | 40 | 1016.3 |
| 20260505130139 | 13 | 360 | 16.1 | 30.6 | 0.00 | 0.00 | 0.00 | 40 | 1016.3 |
| 20260505125020 | 13 | 226 | 19.3 | 30.6 | 0.00 | 0.00 | 0.00 | 39 | 1016.2 |
| 20260505124916 | 13 | 360 | 17.7 | 30.6 | 0.00 | 0.00 | 0.00 | 39 | 1016.2 |
| 20260505124830 | 13 | 360 | 17.7 | 30.6 | 0.00 | 0.00 | 0.00 | 39 | 1016.2 |
| 20260505124720 | 13 | 360 | 20.9 | 30.6 | 0.00 | 0.00 | 0.00 | 39 | 1016.2 |
| 20260505124641 | 13 | 242 | 20.9 | 30.6 | 0.00 | 0.00 | 0.00 | 39 | 1016.2 |
| 20260505124520 | 13 | 360 | 17.7 | 37.0 | 0.00 | 0.00 | 0.00 | 39 | 1016.2 |
| 20260505124430 | 13 | 360 | 14.5 | 37.0 | 0.00 | 0.00 | 0.00 | 39 | 1016.2 |
| 20260505124329 | 13 | 360 | 14.5 | 37.0 | 0.00 | 0.00 | 0.00 | 39 | 1016.2 |
| 20260505124223 | 13 | 218 | 14.5 | 37.0 | 0.00 | 0.00 | 0.00 | 38 | 1016.2 |
| 20260505124133 | 13 | 246 | 16.1 | 37.0 | 0.00 | 0.00 | 0.00 | 38 | 1016.2 |
| 20260505124029 | 13 | 246 | 17.7 | 37.0 | 0.00 | 0.00 | 0.00 | 38 | 1016.2 |
| 20260505123922 | 13 | 263 | 20.9 | 37.0 | 0.00 | 0.00 | 0.00 | 38 | 1016.2 |
| 20260505123818 | 13 | 360 | 25.7 | 37.0 | 0.00 | 0.00 | 0.00 | 39 | 1016.2 |
| 20260505123732 | 13 | 360 | 24.1 | 37.0 | 0.00 | 0.00 | 0.00 | 38 | 1016.2 |
| 20260505123622 | 13 | 243 | 24.1 | 37.0 | 0.00 | 0.00 | 0.00 | 38 | 1016.2 |
| 20260505123532 | 13 | 360 | 20.9 | 32.2 | 0.00 | 0.00 | 0.00 | 38 | 1016.2 |
| 20260505123422 | 13 | 262 | 19.3 | 32.2 | 0.00 | 0.00 | 0.00 | 38 | 1016.2 |
| 20260505123318 | 13 | 360 | 17.7 | 32.2 | 0.00 | 0.00 | 0.00 | 38 | 1016.2 |
| 20260505123214 | 13 | 238 | 19.3 | 32.2 | 0.00 | 0.00 | 0.00 | 38 | 1016.2 |
| 20260505123137 | 13 | 244 | 20.9 | 32.2 | 0.00 | 0.00 | 0.00 | 38 | 1016.2 |
| 20260505123036 | 13 | 360 | 24.1 | 32.2 | 0.00 | 0.00 | 0.00 | 38 | 1016.0 |
| 20260505122932 | 13 | 360 | 20.9 | 32.2 | 0.00 | 0.00 | 0.00 | 38 | 1016.0 |
| 20260505122829 | 13 | 360 | 20.9 | 32.2 | 0.00 | 0.00 | 0.00 | 38 | 1016.0 |
| 20260505122721 | 13 | 217 | 17.7 | 30.6 | 0.00 | 0.00 | 0.00 | 38 | 1016.0 |
| 20260505122631 | 13 | 253 | 19.3 | 30.6 | 0.00 | 0.00 | 0.00 | 38 | 1016.0 |
| 20260505122531 | 13 | 360 | 19.3 | 30.6 | 0.00 | 0.00 | 0.00 | 38 | 1016.0 |
| 20260505122421 | 13 | 360 | 20.9 | 30.6 | 0.00 | 0.00 | 0.00 | 38 | 1016.0 |
| 20260505122318 | 13 | 360 | 19.3 | 35.4 | 0.00 | 0.00 | 0.00 | 38 | 1016.0 |
| 20260505122227 | 13 | 360 | 19.3 | 35.4 | 0.00 | 0.00 | 0.00 | 38 | 1016.0 |
| 20260505122117 | 13 | 270 | 19.3 | 35.4 | 0.00 | 0.00 | 0.00 | 38 | 1016.0 |
| 20260505122011 | 13 | 360 | 20.9 | 35.4 | 0.00 | 0.00 | 0.00 | 38 | 1016.0 |
| 20260505121944 | 13 | 360 | 22.5 | 35.4 | 0.00 | 0.00 | 0.00 | 38 | 1016.0 |
| 20260505121820 | 13 | 360 | 22.5 | 35.4 | 0.00 | 0.00 | 0.00 | 38 | 1016.0 |
| 20260505121721 | 13 | 360 | 20.9 | 35.4 | 0.00 | 0.00 | 0.00 | 38 | 1016.0 |
| 20260505121651 | 13 | 360 | 19.3 | 35.4 | 0.00 | 0.00 | 0.00 | 38 | 1016.0 |
| 20260505121516 | 13 | 360 | 17.7 | 25.7 | 0.00 | 0.00 | 0.00 | 38 | 1015.7 |
| 20260505121430 | 13 | 261 | 16.1 | 25.7 | 0.00 | 0.00 | 0.00 | 38 | 1015.7 |
| 20260505121320 | 13 | 360 | 17.7 | 25.7 | 0.00 | 0.00 | 0.00 | 38 | 1015.7 |
| 20260505121231 | 13 | 360 | 17.7 | 25.7 | 0.00 | 0.00 | 0.00 | 38 | 1015.7 |
| 20260505121120 | 13 | 360 | 17.7 | 25.7 | 0.00 | 0.00 | 0.00 | 38 | 1015.7 |
| 20260505121030 | 13 | 360 | 16.1 | 25.7 | 0.00 | 0.00 | 0.00 | 38 | 1015.7 |
| 20260505120910 | 13 | 360 | 14.5 | 25.7 | 0.00 | 0.00 | 0.00 | 38 | 1015.7 |
| 20260505120823 | 13 | 360 | 14.5 | 22.5 | 0.00 | 0.00 | 0.00 | 38 | 1015.7 |
| 20260505120719 | 13 | 360 | 16.1 | 22.5 | 0.00 | 0.00 | 0.00 | 38 | 1015.7 |
| 20260505120629 | 13 | 229 | 16.1 | 22.5 | 0.00 | 0.00 | 0.00 | 38 | 1015.7 |
| 20260505120542 | 13 | 360 | 14.5 | 22.5 | 0.00 | 0.00 | 0.00 | 38 | 1015.7 |
| 20260505120418 | 13 | 261 | 14.5 | 22.5 | 0.00 | 0.00 | 0.00 | 38 | 1015.7 |
| 20260505120332 | 13 | 360 | 14.5 | 22.5 | 0.00 | 0.00 | 0.00 | 37 | 1015.7 |
| 20260505120219 | 13 | 275 | 14.5 | 24.1 | 0.00 | 0.00 | 0.00 | 37 | 1015.7 |
| 20260505120129 | 13 | 267 | 14.5 | 24.1 | 0.00 | 0.00 | 0.00 | 37 | 1015.7 |
| 20260505120017 | 13 | 263 | 14.5 | 24.1 | 0.00 | 0.00 | 0.00 | 37 | 1015.9 |
| 20260505115927 | 13 | 258 | 16.1 | 24.1 | 0.00 | 0.00 | 0.00 | 37 | 1015.9 |
| 20260505115823 | 13 | 247 | 16.1 | 24.1 | 0.00 | 0.00 | 0.00 | 37 | 1015.9 |
| 20260505115737 | 13 | 242 | 16.1 | 24.1 | 0.00 | 0.00 | 0.00 | 37 | 1015.9 |
| 20260505115613 | 13 | 360 | 16.1 | 24.1 | 0.00 | 0.00 | 0.00 | 37 | 1015.9 |
| 20260505115523 | 13 | 256 | 16.1 | 24.1 | 0.00 | 0.00 | 0.00 | 37 | 1015.9 |
| 20260505115416 | 13 | 360 | 16.1 | 24.1 | 0.00 | 0.00 | 0.00 | 37 | 1015.9 |
| 20260505115326 | 13 | 360 | 16.1 | 24.1 | 0.00 | 0.00 | 0.00 | 37 | 1015.9 |
| 20260505115220 | 13 | 360 | 16.1 | 24.1 | 0.00 | 0.00 | 0.00 | 37 | 1015.9 |
| 20260505115130 | 13 | 360 | 14.5 | 25.7 | 0.00 | 0.00 | 0.00 | 37 | 1015.9 |
| 20260505115026 | 13 | 360 | 14.5 | 25.7 | 0.00 | 0.00 | 0.00 | 37 | 1015.9 |
| 20260505114922 | 13 | 360 | 16.1 | 25.7 | 0.00 | 0.00 | 0.00 | 37 | 1015.9 |
| 20260505114815 | 13 | 360 | 14.5 | 25.7 | 0.00 | 0.00 | 0.00 | 37 | 1015.9 |
| 20260505114722 | 13 | 260 | 14.5 | 25.7 | 0.00 | 0.00 | 0.00 | 37 | 1015.9 |
| 20260505114632 | 13 | 263 | 14.5 | 25.7 | 0.00 | 0.00 | 0.00 | 37 | 1015.9 |
| 20260505114510 | 13 | 242 | 16.1 | 25.7 | 0.00 | 0.00 | 0.00 | 36 | 1016.1 |
| 20260505114430 | 13 | 360 | 17.7 | 25.7 | 0.00 | 0.00 | 0.00 | 36 | 1016.1 |
| 20260505114322 | 13 | 360 | 17.7 | 25.7 | 0.00 | 0.00 | 0.00 | 36 | 1016.1 |
| 20260505114218 | 13 | 360 | 16.1 | 33.8 | 0.00 | 0.00 | 0.00 | 36 | 1016.1 |
| 20260505114132 | 13 | 360 | 17.7 | 33.8 | 0.00 | 0.00 | 0.00 | 36 | 1016.1 |
| 20260505114022 | 13 | 254 | 17.7 | 33.8 | 0.00 | 0.00 | 0.00 | 36 | 1016.1 |
| 20260505113932 | 13 | 248 | 17.7 | 33.8 | 0.00 | 0.00 | 0.00 | 36 | 1016.1 |
| 20260505113828 | 13 | 266 | 17.7 | 33.8 | 0.00 | 0.00 | 0.00 | 36 | 1016.1 |
| 20260505113721 | 13 | 360 | 19.3 | 33.8 | 0.00 | 0.00 | 0.00 | 36 | 1016.1 |
| 20260505113631 | 13 | 244 | 19.3 | 33.8 | 0.00 | 0.00 | 0.00 | 36 | 1016.1 |
| 20260505113511 | 13 | 263 | 20.9 | 33.8 | 0.00 | 0.00 | 0.00 | 36 | 1016.1 |
| 20260505113430 | 13 | 360 | 20.9 | 33.8 | 0.00 | 0.00 | 0.00 | 36 | 1016.1 |
| 20260505113340 | 13 | 360 | 19.3 | 33.8 | 0.00 | 0.00 | 0.00 | 37 | 1016.1 |
| 20260505113216 | 13 | 360 | 16.1 | 29.0 | 0.00 | 0.00 | 0.00 | 37 | 1016.1 |
| 20260505113145 | 13 | 261 | 16.1 | 29.0 | 0.00 | 0.00 | 0.00 | 37 | 1016.1 |
| 20260505113029 | 13 | 242 | 16.1 | 29.0 | 0.00 | 0.00 | 0.00 | 37 | 1016.1 |
| 20260505112925 | 13 | 246 | 19.3 | 29.0 | 0.00 | 0.00 | 0.00 | 36 | 1016.1 |
| 20260505112815 | 13 | 240 | 20.9 | 29.0 | 0.00 | 0.00 | 0.00 | 36 | 1016.1 |
| 20260505112712 | 13 | 360 | 20.9 | 29.0 | 0.00 | 0.00 | 0.00 | 36 | 1016.1 |
| 20260505112644 | 13 | 360 | 19.3 | 29.0 | 0.00 | 0.00 | 0.00 | 37 | 1016.1 |
| 20260505112520 | 13 | 257 | 17.7 | 30.6 | 0.00 | 0.00 | 0.00 | 36 | 1016.1 |
| 20260505112414 | 13 | 360 | 19.3 | 30.6 | 0.00 | 0.00 | 0.00 | 36 | 1016.1 |
| 20260505112324 | 13 | 232 | 20.9 | 30.6 | 0.00 | 0.00 | 0.00 | 36 | 1016.1 |
| 20260505112214 | 13 | 235 | 20.9 | 32.2 | 0.00 | 0.00 | 0.00 | 36 | 1016.1 |
| 20260505112130 | 13 | 360 | 19.3 | 32.2 | 0.00 | 0.00 | 0.00 | 36 | 1016.1 |
| 20260505112026 | 13 | 360 | 19.3 | 32.2 | 0.00 | 0.00 | 0.00 | 36 | 1016.1 |
| 20260505111916 | 13 | 360 | 17.7 | 32.2 | 0.00 | 0.00 | 0.00 | 36 | 1016.1 |
| 20260505111830 | 13 | 360 | 20.9 | 32.2 | 0.00 | 0.00 | 0.00 | 36 | 1016.1 |
| 20260505111731 | 13 | 360 | 20.9 | 37.0 | 0.00 | 0.00 | 0.00 | 36 | 1016.1 |
| 20260505111627 | 13 | 254 | 22.5 | 37.0 | 0.00 | 0.00 | 0.00 | 36 | 1016.1 |
| 20260505111526 | 13 | 360 | 20.9 | 37.0 | 0.00 | 0.00 | 0.00 | 36 | 1016.0 |
| 20260505111416 | 13 | 360 | 19.3 | 37.0 | 0.00 | 0.00 | 0.00 | 36 | 1016.0 |
| 20260505111326 | 13 | 360 | 17.7 | 37.0 | 0.00 | 0.00 | 0.00 | 36 | 1016.0 |
| 20260505111220 | 13 | 360 | 16.1 | 37.0 | 0.00 | 0.00 | 0.00 | 36 | 1016.0 |
| 20260505111130 | 13 | 244 | 17.7 | 37.0 | 0.00 | 0.00 | 0.00 | 36 | 1016.0 |
| 20260505111020 | 13 | 360 | 22.5 | 37.0 | 0.00 | 0.00 | 0.00 | 36 | 1016.0 |
| 20260505110933 | 13 | 360 | 24.1 | 37.0 | 0.00 | 0.00 | 0.00 | 36 | 1016.0 |
| 20260505110815 | 13 | 360 | 22.5 | 37.0 | 0.00 | 0.00 | 0.00 | 36 | 1016.0 |
| 20260505110729 | 13 | 360 | 22.5 | 37.0 | 0.00 | 0.00 | 0.00 | 36 | 1016.0 |
| 20260505110618 | 13 | 360 | 24.1 | 37.0 | 0.00 | 0.00 | 0.00 | 36 | 1016.0 |
| 20260505110528 | 13 | 360 | 25.7 | 37.0 | 0.00 | 0.00 | 0.00 | 36 | 1016.0 |
| 20260505110427 | 13 | 360 | 27.4 | 37.0 | 0.00 | 0.00 | 0.00 | 36 | 1016.0 |
| 20260505110324 | 13 | 244 | 25.7 | 37.0 | 0.00 | 0.00 | 0.00 | 36 | 1016.0 |
| 20260505110223 | 13 | 360 | 24.1 | 37.0 | 0.00 | 0.00 | 0.00 | 36 | 1016.0 |
| 20260505110143 | 13 | 360 | 22.5 | 37.0 | 0.00 | 0.00 | 0.00 | 36 | 1016.0 |
| 20260505102132 | 13 | 249 | 12.9 | 20.9 | 0.00 | 0.00 | 0.00 | 37 | 1016.0 |
| 20260505102032 | 13 | 265 | 14.5 | 20.9 | 0.00 | 0.00 | 0.00 | 37 | 1016.0 |
| 20260505101922 | 13 | 360 | 16.1 | 20.9 | 0.00 | 0.00 | 0.00 | 37 | 1016.0 |
| 20260505101816 | 13 | 360 | 16.1 | 19.3 | 0.00 | 0.00 | 0.00 | 37 | 1016.0 |
| 20260505101728 | 13 | 360 | 16.1 | 19.3 | 0.00 | 0.00 | 0.00 | 37 | 1016.0 |
| 20260505101634 | 13 | 252 | 14.5 | 19.3 | 0.00 | 0.00 | 0.00 | 37 | 1016.0 |
| 20260505101523 | 13 | 257 | 14.5 | 19.3 | 0.00 | 0.00 | 0.00 | 37 | 1015.8 |
| 20260505101413 | 13 | 360 | 12.9 | 19.3 | 0.00 | 0.00 | 0.00 | 37 | 1015.8 |
| 20260505101323 | 13 | 225 | 11.3 | 16.1 | 0.00 | 0.00 | 0.00 | 37 | 1015.8 |
| 20260505101233 | 13 | 213 | 9.7 | 14.5 | 0.00 | 0.00 | 0.00 | 36 | 1015.8 |
| 20260505101143 | 13 | 243 | 9.7 | 14.5 | 0.00 | 0.00 | 0.00 | 36 | 1015.8 |
| 20260505101025 | 13 | 360 | 9.7 | 14.5 | 0.00 | 0.00 | 0.00 | 36 | 1015.8 |
| 20260505100919 | 13 | 219 | 9.7 | 14.5 | 0.00 | 0.00 | 0.00 | 36 | 1015.8 |
| 20260505100829 | 13 | 221 | 9.7 | 14.5 | 0.00 | 0.00 | 0.00 | 36 | 1015.8 |
| 20260505100722 | 13 | 211 | 9.7 | 14.5 | 0.00 | 0.00 | 0.00 | 36 | 1015.8 |
| 20260505100632 | 13 | 210 | 9.7 | 14.5 | 0.00 | 0.00 | 0.00 | 36 | 1015.8 |
| 20260505100522 | 13 | 219 | 9.7 | 14.5 | 0.00 | 0.00 | 0.00 | 36 | 1015.8 |
| 20260505100419 | 13 | 223 | 11.3 | 14.5 | 0.00 | 0.00 | 0.00 | 36 | 1015.8 |
| 20260505100329 | 13 | 219 | 9.7 | 14.5 | 0.00 | 0.00 | 0.00 | 36 | 1015.8 |
| 20260505100218 | 14 | 213 | 8.0 | 11.3 | 0.00 | 0.00 | 0.00 | 35 | 1015.8 |
| 20260505100126 | 14 | 212 | 8.0 | 11.3 | 0.00 | 0.00 | 0.00 | 35 | 1015.8 |
| 20260505100025 | 14 | 212 | 8.0 | 11.3 | 0.00 | 0.00 | 0.00 | 35 | 1016.1 |
| 20260505095922 | 14 | 212 | 8.0 | 11.3 | 0.00 | 0.00 | 0.00 | 35 | 1016.1 |
| 20260505095831 | 14 | 212 | 8.0 | 11.3 | 0.00 | 0.00 | 0.00 | 35 | 1016.1 |
| 20260505095727 | 14 | 212 | 8.0 | 11.3 | 0.00 | 0.00 | 0.00 | 35 | 1016.1 |
| 20260505095617 | 14 | 212 | 9.7 | 11.3 | 0.00 | 0.00 | 0.00 | 35 | 1016.1 |
| 20260505095527 | 14 | 215 | 9.7 | 12.9 | 0.00 | 0.00 | 0.00 | 35 | 1016.1 |
| 20260505095420 | 14 | 218 | 8.0 | 12.9 | 0.00 | 0.00 | 0.00 | 35 | 1016.1 |
| 20260505095314 | 14 | 219 | 8.0 | 12.9 | 0.00 | 0.00 | 0.00 | 35 | 1016.1 |
| 20260505095227 | 14 | 219 | 6.4 | 16.1 | 0.00 | 0.00 | 0.00 | 35 | 1016.1 |
| 20260505095120 | 14 | 219 | 6.4 | 16.1 | 0.00 | 0.00 | 0.00 | 35 | 1016.1 |
| 20260505095016 | 14 | 219 | 8.0 | 16.1 | 0.00 | 0.00 | 0.00 | 35 | 1016.1 |
| 20260505094932 | 14 | 219 | 9.7 | 16.1 | 0.00 | 0.00 | 0.00 | 35 | 1016.1 |
| 20260505094826 | 14 | 219 | 9.7 | 16.1 | 0.00 | 0.00 | 0.00 | 35 | 1016.1 |
| 20260505094713 | 14 | 224 | 9.7 | 16.1 | 0.00 | 0.00 | 0.00 | 35 | 1016.1 |
| 20260505094625 | 14 | 211 | 9.7 | 16.1 | 0.00 | 0.00 | 0.00 | 35 | 1016.1 |
| 20260505094530 | 14 | 211 | 11.3 | 16.1 | 0.00 | 0.00 | 0.00 | 35 | 1016.2 |
| 20260505094420 | 14 | 227 | 12.9 | 16.1 | 0.00 | 0.00 | 0.00 | 35 | 1016.2 |
| 20260505094330 | 14 | 214 | 12.9 | 16.1 | 0.00 | 0.00 | 0.00 | 35 | 1016.2 |
| 20260505094226 | 14 | 211 | 11.3 | 17.7 | 0.00 | 0.00 | 0.00 | 34 | 1016.2 |
| 20260505094117 | 14 | 238 | 11.3 | 17.7 | 0.00 | 0.00 | 0.00 | 34 | 1016.2 |
| 20260505094030 | 14 | 225 | 11.3 | 17.7 | 0.00 | 0.00 | 0.00 | 34 | 1016.2 |
| 20260505093939 | 14 | 207 | 11.3 | 20.9 | 0.00 | 0.00 | 0.00 | 34 | 1016.2 |
| 20260505093821 | 14 | 360 | 9.7 | 20.9 | 0.00 | 0.00 | 0.00 | 34 | 1016.2 |
| 20260505093715 | 14 | 225 | 8.0 | 20.9 | 0.00 | 0.00 | 0.00 | 34 | 1016.2 |
| 20260505093625 | 14 | 228 | 8.0 | 20.9 | 0.00 | 0.00 | 0.00 | 34 | 1016.2 |
| 20260505093521 | 14 | 230 | 9.7 | 20.9 | 0.00 | 0.00 | 0.00 | 34 | 1016.2 |
| 20260505093431 | 14 | 231 | 11.3 | 20.9 | 0.00 | 0.00 | 0.00 | 34 | 1016.2 |
| 20260505093328 | 14 | 221 | 11.3 | 20.9 | 0.00 | 0.00 | 0.00 | 34 | 1016.2 |
| 20260505093220 | 14 | 243 | 12.9 | 20.9 | 0.00 | 0.00 | 0.00 | 34 | 1016.2 |
| 20260505093125 | 14 | 248 | 14.5 | 25.7 | 0.00 | 0.00 | 0.00 | 34 | 1016.2 |
| 20260505093044 | 14 | 360 | 12.9 | 27.4 | 0.00 | 0.00 | 0.00 | 34 | 1016.3 |
| 20260505092920 | 14 | 236 | 12.9 | 27.4 | 0.00 | 0.00 | 0.00 | 34 | 1016.3 |
| 20260505092830 | 14 | 360 | 14.5 | 27.4 | 0.00 | 0.00 | 0.00 | 34 | 1016.3 |
| 20260505092723 | 14 | 360 | 16.1 | 27.4 | 0.00 | 0.00 | 0.00 | 34 | 1016.3 |
| 20260505092617 | 14 | 217 | 16.1 | 27.4 | 0.00 | 0.00 | 0.00 | 34 | 1016.3 |
| 20260505092527 | 14 | 360 | 16.1 | 27.4 | 0.00 | 0.00 | 0.00 | 34 | 1016.3 |
| 20260505092423 | 14 | 236 | 17.7 | 27.4 | 0.00 | 0.00 | 0.00 | 34 | 1016.3 |
| 20260505092333 | 14 | 360 | 19.3 | 27.4 | 0.00 | 0.00 | 0.00 | 34 | 1016.3 |
| 20260505092229 | 14 | 360 | 20.9 | 27.4 | 0.00 | 0.00 | 0.00 | 34 | 1016.3 |
| 20260505092125 | 14 | 360 | 19.3 | 25.7 | 0.00 | 0.00 | 0.00 | 34 | 1016.3 |
| 20260505092021 | 14 | 360 | 17.7 | 24.1 | 0.00 | 0.00 | 0.00 | 33 | 1016.3 |
| 20260505091918 | 14 | 231 | 16.1 | 24.1 | 0.00 | 0.00 | 0.00 | 33 | 1016.3 |
| 20260505091814 | 14 | 360 | 16.1 | 24.1 | 0.00 | 0.00 | 0.00 | 33 | 1016.3 |
| 20260505091735 | 14 | 360 | 16.1 | 25.7 | 0.00 | 0.00 | 0.00 | 33 | 1016.3 |
| 20260505091651 | 14 | 360 | 16.1 | 25.7 | 0.00 | 0.00 | 0.00 | 33 | 1016.3 |
| 20260505091516 | 14 | 360 | 17.7 | 25.7 | 0.00 | 0.00 | 0.00 | 33 | 1016.3 |
| 20260505091432 | 14 | 212 | 17.7 | 25.7 | 0.00 | 0.00 | 0.00 | 33 | 1016.3 |
| 20260505091325 | 14 | 360 | 16.1 | 25.7 | 0.00 | 0.00 | 0.00 | 33 | 1016.3 |
| 20260505091236 | 14 | 360 | 11.3 | 25.7 | 0.00 | 0.00 | 0.00 | 33 | 1016.3 |
| 20260505091118 | 14 | 207 | 12.9 | 25.7 | 0.00 | 0.00 | 0.00 | 33 | 1016.3 |
| 20260505091027 | 14 | 246 | 16.1 | 25.7 | 0.00 | 0.00 | 0.00 | 33 | 1016.3 |
| 20260505090924 | 14 | 230 | 16.1 | 25.7 | 0.00 | 0.00 | 0.00 | 33 | 1016.3 |
| 20260505090813 | 14 | 360 | 12.9 | 19.3 | 0.00 | 0.00 | 0.00 | 33 | 1016.3 |
| 20260505090727 | 14 | 253 | 12.9 | 19.3 | 0.00 | 0.00 | 0.00 | 33 | 1016.3 |
| 20260505090620 | 14 | 238 | 11.3 | 17.7 | 0.00 | 0.00 | 0.00 | 33 | 1016.3 |
| 20260505090530 | 14 | 244 | 11.3 | 17.7 | 0.00 | 0.00 | 0.00 | 33 | 1016.3 |
| 20260505090420 | 14 | 360 | 11.3 | 17.7 | 0.00 | 0.00 | 0.00 | 33 | 1016.3 |
| 20260505090313 | 14 | 360 | 11.3 | 19.3 | 0.00 | 0.00 | 0.00 | 34 | 1016.3 |
| 20260505090219 | 14 | 221 | 12.9 | 19.3 | 0.00 | 0.00 | 0.00 | 34 | 1016.3 |
| 20260505090149 | 14 | 360 | 12.9 | 19.3 | 0.00 | 0.00 | 0.00 | 34 | 1016.3 |
| 20260505090014 | 14 | 238 | 12.9 | 19.3 | 0.00 | 0.00 | 0.00 | 34 | 1016.6 |
| 20260505085927 | 14 | 222 | 11.3 | 19.3 | 0.00 | 0.00 | 0.00 | 34 | 1016.6 |
| 20260505085837 | 14 | 236 | 12.9 | 19.3 | 0.00 | 0.00 | 0.00 | 34 | 1016.6 |
| 20260505085717 | 14 | 224 | 12.9 | 19.3 | 0.00 | 0.00 | 0.00 | 34 | 1016.6 |
| 20260505085627 | 14 | 242 | 12.9 | 19.3 | 0.00 | 0.00 | 0.00 | 34 | 1016.6 |
| 20260505085532 | 14 | 238 | 12.9 | 19.3 | 0.00 | 0.00 | 0.00 | 35 | 1016.6 |
| 20260505085422 | 14 | 205 | 11.3 | 12.9 | 0.00 | 0.00 | 0.00 | 35 | 1016.6 |
| 20260505085318 | 14 | 204 | 9.7 | 11.3 | 0.00 | 0.00 | 0.00 | 35 | 1016.6 |
| 20260505085228 | 14 | 201 | 8.0 | 11.3 | 0.00 | 0.00 | 0.00 | 35 | 1016.6 |
| 20260505085122 | 14 | 213 | 9.7 | 11.3 | 0.00 | 0.00 | 0.00 | 34 | 1016.6 |
| 20260505085018 | 14 | 211 | 9.7 | 11.3 | 0.00 | 0.00 | 0.00 | 34 | 1016.6 |
| 20260505084927 | 14 | 211 | 9.7 | 11.3 | 0.00 | 0.00 | 0.00 | 35 | 1016.6 |
| 20260505084818 | 14 | 212 | 9.7 | 11.3 | 0.00 | 0.00 | 0.00 | 35 | 1016.6 |
| 20260505084719 | 14 | 212 | 9.7 | 11.3 | 0.00 | 0.00 | 0.00 | 35 | 1016.6 |
| 20260505084649 | 14 | 209 | 9.7 | 11.3 | 0.00 | 0.00 | 0.00 | 35 | 1016.6 |
| 20260505084517 | 14 | 211 | 9.7 | 11.3 | 0.00 | 0.00 | 0.00 | 34 | 1016.7 |
| 20260505084410 | 14 | 211 | 9.7 | 11.3 | 0.00 | 0.00 | 0.00 | 34 | 1016.7 |
| 20260505084330 | 14 | 223 | 9.7 | 11.3 | 0.00 | 0.00 | 0.00 | 34 | 1016.7 |
| 20260505084239 | 14 | 229 | 8.0 | 11.3 | 0.00 | 0.00 | 0.00 | 34 | 1016.7 |
| 20260505084115 | 14 | 234 | 8.0 | 12.9 | 0.00 | 0.00 | 0.00 | 34 | 1016.7 |
| 20260505084025 | 14 | 237 | 8.0 | 12.9 | 0.00 | 0.00 | 0.00 | 34 | 1016.7 |
| 20260505083922 | 14 | 240 | 8.0 | 12.9 | 0.00 | 0.00 | 0.00 | 34 | 1016.7 |
| 20260505083832 | 14 | 240 | 8.0 | 12.9 | 0.00 | 0.00 | 0.00 | 34 | 1016.7 |
| 20260505083722 | 15 | 241 | 8.0 | 16.1 | 0.00 | 0.00 | 0.00 | 34 | 1016.7 |
| 20260505083618 | 15 | 241 | 8.0 | 16.1 | 0.00 | 0.00 | 0.00 | 34 | 1016.7 |
| 20260505083528 | 15 | 242 | 8.0 | 16.1 | 0.00 | 0.00 | 0.00 | 33 | 1016.7 |
| 20260505083425 | 15 | 242 | 9.7 | 16.1 | 0.00 | 0.00 | 0.00 | 33 | 1016.7 |
| 20260505083315 | 15 | 240 | 9.7 | 16.1 | 0.00 | 0.00 | 0.00 | 33 | 1016.7 |
| 20260505083218 | 15 | 240 | 9.7 | 16.1 | 0.00 | 0.00 | 0.00 | 33 | 1016.7 |
| 20260505083128 | 15 | 239 | 9.7 | 16.1 | 0.00 | 0.00 | 0.00 | 33 | 1016.7 |
| 20260505083026 | 15 | 241 | 11.3 | 16.1 | 0.00 | 0.00 | 0.00 | 33 | 1016.8 |
| 20260505082927 | 15 | 238 | 11.3 | 16.1 | 0.00 | 0.00 | 0.00 | 33 | 1016.8 |
| 20260505082819 | 15 | 234 | 11.3 | 16.1 | 0.00 | 0.00 | 0.00 | 33 | 1016.8 |
| 20260505082729 | 15 | 228 | 11.3 | 16.1 | 0.00 | 0.00 | 0.00 | 33 | 1016.8 |
| 20260505082626 | 15 | 227 | 9.7 | 22.5 | 0.00 | 0.00 | 0.00 | 33 | 1016.8 |
| 20260505082515 | 15 | 360 | 9.7 | 22.5 | 0.00 | 0.00 | 0.00 | 33 | 1016.8 |
| 20260505082428 | 15 | 259 | 9.7 | 22.5 | 0.00 | 0.00 | 0.00 | 33 | 1016.8 |
| 20260505082322 | 15 | 239 | 9.7 | 22.5 | 0.00 | 0.00 | 0.00 | 33 | 1016.8 |
| 20260505082218 | 15 | 226 | 9.7 | 22.5 | 0.00 | 0.00 | 0.00 | 33 | 1016.8 |
| 20260505082128 | 15 | 230 | 11.3 | 22.5 | 0.00 | 0.00 | 0.00 | 33 | 1016.8 |
| 20260505082018 | 15 | 217 | 11.3 | 24.1 | 0.00 | 0.00 | 0.00 | 33 | 1016.8 |
| 20260505081931 | 15 | 225 | 12.9 | 24.1 | 0.00 | 0.00 | 0.00 | 33 | 1016.8 |
| 20260505081825 | 15 | 229 | 14.5 | 24.1 | 0.00 | 0.00 | 0.00 | 33 | 1016.8 |
| 20260505081715 | 15 | 360 | 16.1 | 24.1 | 0.00 | 0.00 | 0.00 | 33 | 1016.8 |
| 20260505081635 | 15 | 239 | 16.1 | 24.1 | 0.00 | 0.00 | 0.00 | 33 | 1016.8 |
| 20260505081517 | 15 | 360 | 16.1 | 24.1 | 0.00 | 0.00 | 0.00 | 33 | 1016.9 |
| 20260505081427 | 15 | 234 | 17.7 | 24.1 | 0.00 | 0.00 | 0.00 | 33 | 1016.9 |
| 20260505081324 | 15 | 245 | 17.7 | 24.1 | 0.00 | 0.00 | 0.00 | 33 | 1016.9 |
| 20260505081214 | 15 | 360 | 17.7 | 24.1 | 0.00 | 0.00 | 0.00 | 33 | 1016.9 |
| 20260505081127 | 15 | 261 | 17.7 | 24.1 | 0.00 | 0.00 | 0.00 | 33 | 1016.9 |
| 20260505081017 | 15 | 360 | 16.1 | 24.1 | 0.00 | 0.00 | 0.00 | 32 | 1016.9 |
| 20260505080927 | 15 | 360 | 14.5 | 24.1 | 0.00 | 0.00 | 0.00 | 33 | 1016.9 |
| 20260505080827 | 15 | 260 | 12.9 | 22.5 | 0.00 | 0.00 | 0.00 | 32 | 1016.9 |
| 20260505080737 | 15 | 247 | 12.9 | 27.4 | 0.00 | 0.00 | 0.00 | 32 | 1016.9 |
| 20260505080633 | 15 | 232 | 12.9 | 27.4 | 0.00 | 0.00 | 0.00 | 32 | 1016.9 |
| 20260505080522 | 15 | 261 | 12.9 | 27.4 | 0.00 | 0.00 | 0.00 | 32 | 1016.9 |
| 20260505080432 | 15 | 360 | 14.5 | 29.0 | 0.00 | 0.00 | 0.00 | 32 | 1016.9 |
| 20260505080328 | 15 | 229 | 14.5 | 29.0 | 0.00 | 0.00 | 0.00 | 32 | 1016.9 |
| 20260505080216 | 15 | 245 | 16.1 | 29.0 | 0.00 | 0.00 | 0.00 | 32 | 1016.9 |
| 20260505080132 | 15 | 240 | 16.1 | 29.0 | 0.00 | 0.00 | 0.00 | 32 | 1016.9 |
| 20260505080033 | 15 | 360 | 19.3 | 29.0 | 0.00 | 0.00 | 0.00 | 32 | 1016.8 |
| 20260505075928 | 15 | 360 | 20.9 | 29.0 | 0.00 | 0.00 | 0.00 | 32 | 1016.8 |
| 20260505075838 | 15 | 360 | 20.9 | 29.0 | 0.00 | 0.00 | 0.00 | 32 | 1016.8 |
| 20260505075714 | 15 | 240 | 19.3 | 29.0 | 0.00 | 0.00 | 0.00 | 32 | 1016.8 |
| 20260505075628 | 15 | 360 | 19.3 | 29.0 | 0.00 | 0.00 | 0.00 | 32 | 1016.8 |
| 20260505075521 | 15 | 235 | 17.7 | 25.7 | 0.00 | 0.00 | 0.00 | 32 | 1016.8 |
| 20260505075431 | 15 | 247 | 19.3 | 27.4 | 0.00 | 0.00 | 0.00 | 32 | 1016.8 |
| 20260505075327 | 15 | 217 | 16.1 | 27.4 | 0.00 | 0.00 | 0.00 | 33 | 1016.8 |
| 20260505075217 | 15 | 237 | 16.1 | 27.4 | 0.00 | 0.00 | 0.00 | 33 | 1016.8 |
| 20260505075114 | 15 | 245 | 16.1 | 33.8 | 0.00 | 0.00 | 0.00 | 33 | 1016.8 |
| 20260505075024 | 15 | 222 | 17.7 | 33.8 | 0.00 | 0.00 | 0.00 | 33 | 1016.8 |
| 20260505074914 | 15 | 275 | 17.7 | 33.8 | 0.00 | 0.00 | 0.00 | 32 | 1016.8 |
| 20260505074830 | 15 | 360 | 17.7 | 33.8 | 0.00 | 0.00 | 0.00 | 32 | 1016.8 |
| 20260505074720 | 15 | 259 | 19.3 | 33.8 | 0.00 | 0.00 | 0.00 | 32 | 1016.8 |
| 20260505074625 | 15 | 244 | 19.3 | 33.8 | 0.00 | 0.00 | 0.00 | 33 | 1016.8 |
| 20260505074530 | 15 | 246 | 20.9 | 33.8 | 0.00 | 0.00 | 0.00 | 33 | 1016.5 |
| 20260505074423 | 14 | 360 | 20.9 | 33.8 | 0.00 | 0.00 | 0.00 | 33 | 1016.5 |
| 20260505074332 | 14 | 240 | 20.9 | 33.8 | 0.00 | 0.00 | 0.00 | 33 | 1016.5 |
| 20260505074242 | 14 | 360 | 20.9 | 33.8 | 0.00 | 0.00 | 0.00 | 33 | 1016.5 |
| 20260505074138 | 14 | 360 | 20.9 | 33.8 | 0.00 | 0.00 | 0.00 | 33 | 1016.5 |
| 20260505074018 | 14 | 360 | 17.7 | 30.6 | 0.00 | 0.00 | 0.00 | 34 | 1016.5 |
| 20260505073928 | 14 | 360 | 17.7 | 29.0 | 0.00 | 0.00 | 0.00 | 34 | 1016.5 |
| 20260505073845 | 14 | 360 | 16.1 | 29.0 | 0.00 | 0.00 | 0.00 | 34 | 1016.5 |
| 20260505073740 | 14 | 228 | 16.1 | 29.0 | 0.00 | 0.00 | 0.00 | 34 | 1016.5 |
| 20260505073636 | 14 | 230 | 16.1 | 29.0 | 0.00 | 0.00 | 0.00 | 34 | 1016.5 |
| 20260505073532 | 14 | 360 | 14.5 | 29.0 | 0.00 | 0.00 | 0.00 | 34 | 1016.5 |
| 20260505073428 | 14 | 219 | 16.1 | 29.0 | 0.00 | 0.00 | 0.00 | 34 | 1016.5 |
| 20260505073331 | 14 | 360 | 14.5 | 29.0 | 0.00 | 0.00 | 0.00 | 34 | 1016.5 |
| 20260505073233 | 14 | 360 | 12.9 | 29.0 | 0.00 | 0.00 | 0.00 | 35 | 1016.5 |
| 20260505073148 | 14 | 205 | 11.3 | 17.7 | 0.00 | 0.00 | 0.00 | 35 | 1016.5 |
| 20260505073013 | 14 | 214 | 11.3 | 17.7 | 0.00 | 0.00 | 0.00 | 35 | 1016.6 |
| 20260505072923 | 14 | 360 | 11.3 | 17.7 | 0.00 | 0.00 | 0.00 | 35 | 1016.6 |
| 20260505072819 | 14 | 213 | 12.9 | 17.7 | 0.00 | 0.00 | 0.00 | 35 | 1016.6 |
| 20260505072733 | 14 | 360 | 12.9 | 17.7 | 0.00 | 0.00 | 0.00 | 35 | 1016.6 |
| 20260505072629 | 14 | 360 | 12.9 | 17.7 | 0.00 | 0.00 | 0.00 | 35 | 1016.6 |
| 20260505072519 | 14 | 235 | 11.3 | 16.1 | 0.00 | 0.00 | 0.00 | 35 | 1016.6 |
| 20260505072429 | 14 | 207 | 9.7 | 14.5 | 0.00 | 0.00 | 0.00 | 35 | 1016.6 |
| 20260505072322 | 14 | 215 | 9.7 | 14.5 | 0.00 | 0.00 | 0.00 | 35 | 1016.6 |
| 20260505072218 | 14 | 217 | 11.3 | 14.5 | 0.00 | 0.00 | 0.00 | 35 | 1016.6 |
| 20260505072132 | 14 | 224 | 11.3 | 16.1 | 0.00 | 0.00 | 0.00 | 35 | 1016.6 |
| 20260505072042 | 14 | 208 | 11.3 | 16.1 | 0.00 | 0.00 | 0.00 | 35 | 1016.6 |
| 20260505071924 | 14 | 227 | 9.7 | 16.1 | 0.00 | 0.00 | 0.00 | 35 | 1016.6 |
| 20260505071823 | 14 | 221 | 11.3 | 16.1 | 0.00 | 0.00 | 0.00 | 35 | 1016.6 |
| 20260505071715 | 14 | 217 | 9.7 | 14.5 | 0.00 | 0.00 | 0.00 | 35 | 1016.6 |
| 20260505071638 | 14 | 217 | 9.7 | 14.5 | 0.00 | 0.00 | 0.00 | 35 | 1016.6 |
| 20260505071517 | 14 | 227 | 9.7 | 14.5 | 0.00 | 0.00 | 0.00 | 35 | 1016.6 |
| 20260505071446 | 14 | 228 | 9.7 | 14.5 | 0.00 | 0.00 | 0.00 | 35 | 1016.6 |
| 20260505071342 | 14 | 227 | 9.7 | 14.5 | 0.00 | 0.00 | 0.00 | 35 | 1016.6 |
| 20260505071218 | 14 | 221 | 11.3 | 14.5 | 0.00 | 0.00 | 0.00 | 35 | 1016.6 |
| 20260505071114 | 14 | 231 | 11.3 | 14.5 | 0.00 | 0.00 | 0.00 | 35 | 1016.6 |
| 20260505071027 | 14 | 225 | 11.3 | 14.5 | 0.00 | 0.00 | 0.00 | 36 | 1016.6 |
| 20260505070921 | 14 | 232 | 11.3 | 14.5 | 0.00 | 0.00 | 0.00 | 36 | 1016.6 |
| 20260505070831 | 14 | 223 | 11.3 | 14.5 | 0.00 | 0.00 | 0.00 | 36 | 1016.6 |
| 20260505070727 | 14 | 226 | 11.3 | 14.5 | 0.00 | 0.00 | 0.00 | 36 | 1016.6 |
| 20260505070637 | 14 | 227 | 11.3 | 14.5 | 0.00 | 0.00 | 0.00 | 36 | 1016.6 |
| 20260505070513 | 14 | 219 | 11.3 | 14.5 | 0.00 | 0.00 | 0.00 | 36 | 1016.6 |
| 20260505070443 | 14 | 224 | 11.3 | 14.5 | 0.00 | 0.00 | 0.00 | 36 | 1016.6 |
| 20260505070329 | 14 | 223 | 11.3 | 14.5 | 0.00 | 0.00 | 0.00 | 36 | 1016.6 |
| 20260505070216 | 14 | 360 | 11.3 | 14.5 | 0.00 | 0.00 | 0.00 | 36 | 1016.6 |
| 20260505070145 | 14 | 236 | 11.3 | 14.5 | 0.00 | 0.00 | 0.00 | 36 | 1016.6 |
| 20260505070029 | 14 | 219 | 9.7 | 14.5 | 0.00 | 0.00 | 0.00 | 35 | 1016.8 |
| 20260505065922 | 14 | 217 | 9.7 | 14.5 | 0.00 | 0.00 | 0.00 | 35 | 1016.8 |
| 20260505065818 | 14 | 217 | 9.7 | 14.5 | 0.00 | 0.00 | 0.00 | 35 | 1016.8 |
| 20260505065732 | 14 | 217 | 9.7 | 14.5 | 0.00 | 0.00 | 0.00 | 35 | 1016.8 |
| 20260505065628 | 14 | 360 | 9.7 | 14.5 | 0.00 | 0.00 | 0.00 | 35 | 1016.8 |
| 20260505065524 | 14 | 228 | 9.7 | 16.1 | 0.00 | 0.00 | 0.00 | 35 | 1016.8 |
| 20260505065413 | 14 | 229 | 8.0 | 16.1 | 0.00 | 0.00 | 0.00 | 35 | 1016.8 |
| 20260505065323 | 14 | 232 | 8.0 | 16.1 | 0.00 | 0.00 | 0.00 | 35 | 1016.8 |
| 20260505065216 | 14 | 234 | 8.0 | 16.1 | 0.00 | 0.00 | 0.00 | 35 | 1016.8 |
| 20260505065130 | 14 | 234 | 8.0 | 16.1 | 0.00 | 0.00 | 0.00 | 35 | 1016.8 |
| 20260505065027 | 14 | 233 | 8.0 | 16.1 | 0.00 | 0.00 | 0.00 | 35 | 1016.8 |
| 20260505064916 | 14 | 255 | 8.0 | 16.1 | 0.00 | 0.00 | 0.00 | 35 | 1016.8 |
| 20260505064827 | 14 | 254 | 9.7 | 16.1 | 0.00 | 0.00 | 0.00 | 35 | 1016.8 |
| 20260505064730 | 14 | 257 | 9.7 | 14.5 | 0.00 | 0.00 | 0.00 | 35 | 1016.8 |
| 20260505064633 | 14 | 360 | 9.7 | 16.1 | 0.00 | 0.00 | 0.00 | 34 | 1016.8 |
| 20260505064532 | 14 | 248 | 8.0 | 17.7 | 0.00 | 0.00 | 0.00 | 34 | 1016.8 |
| 20260505064421 | 14 | 242 | 9.7 | 17.7 | 0.00 | 0.00 | 0.00 | 34 | 1016.8 |
| 20260505064311 | 14 | 360 | 9.7 | 17.7 | 0.00 | 0.00 | 0.00 | 34 | 1016.8 |
| 20260505064224 | 15 | 265 | 9.7 | 17.7 | 0.00 | 0.00 | 0.00 | 34 | 1016.8 |
| 20260505064120 | 14 | 263 | 9.7 | 17.7 | 0.00 | 0.00 | 0.00 | 34 | 1016.8 |
| 20260505064014 | 15 | 261 | 11.3 | 17.7 | 0.00 | 0.00 | 0.00 | 34 | 1016.8 |
| 20260505063947 | 15 | 271 | 11.3 | 17.7 | 0.00 | 0.00 | 0.00 | 34 | 1016.8 |
| 20260505063823 | 15 | 264 | 11.3 | 19.3 | 0.00 | 0.00 | 0.00 | 34 | 1016.8 |
| 20260505063733 | 15 | 284 | 11.3 | 19.3 | 0.00 | 0.00 | 0.00 | 34 | 1016.8 |
| 20260505063615 | 15 | 264 | 11.3 | 19.3 | 0.00 | 0.00 | 0.00 | 34 | 1016.8 |
| 20260505063525 | 15 | 259 | 11.3 | 19.3 | 0.00 | 0.00 | 0.00 | 34 | 1016.8 |
| 20260505063421 | 15 | 254 | 11.3 | 19.3 | 0.00 | 0.00 | 0.00 | 34 | 1016.8 |
| 20260505063311 | 15 | 360 | 9.7 | 19.3 | 0.00 | 0.00 | 0.00 | 34 | 1016.8 |
| 20260505063235 | 15 | 261 | 11.3 | 19.3 | 0.00 | 0.00 | 0.00 | 33 | 1016.8 |
| 20260505063130 | 15 | 275 | 11.3 | 19.3 | 0.00 | 0.00 | 0.00 | 33 | 1016.8 |
| 20260505063029 | 15 | 257 | 12.9 | 19.3 | 0.00 | 0.00 | 0.00 | 33 | 1016.7 |
| 20260505062923 | 15 | 261 | 11.3 | 17.7 | 0.00 | 0.00 | 0.00 | 33 | 1016.7 |
| 20260505062816 | 15 | 242 | 11.3 | 16.1 | 0.00 | 0.00 | 0.00 | 33 | 1016.7 |
| 20260505062726 | 15 | 239 | 11.3 | 16.1 | 0.00 | 0.00 | 0.00 | 33 | 1016.7 |
| 20260505062616 | 15 | 252 | 12.9 | 16.1 | 0.00 | 0.00 | 0.00 | 33 | 1016.7 |
| 20260505062529 | 15 | 263 | 12.9 | 16.1 | 0.00 | 0.00 | 0.00 | 33 | 1016.7 |
| 20260505062423 | 15 | 253 | 11.3 | 16.1 | 0.00 | 0.00 | 0.00 | 32 | 1016.7 |
| 20260505062333 | 15 | 235 | 11.3 | 14.5 | 0.00 | 0.00 | 0.00 | 33 | 1016.7 |
| 20260505062243 | 15 | 239 | 11.3 | 14.5 | 0.00 | 0.00 | 0.00 | 32 | 1016.7 |
| 20260505062125 | 15 | 247 | 11.3 | 14.5 | 0.00 | 0.00 | 0.00 | 32 | 1016.7 |
| 20260505062015 | 15 | 215 | 11.3 | 14.5 | 0.00 | 0.00 | 0.00 | 32 | 1016.7 |
| 20260505061928 | 15 | 360 | 9.7 | 14.5 | 0.00 | 0.00 | 0.00 | 32 | 1016.7 |
| 20260505061842 | 15 | 223 | 9.7 | 14.5 | 0.00 | 0.00 | 0.00 | 31 | 1016.7 |
| 20260505061718 | 15 | 244 | 9.7 | 14.5 | 0.00 | 0.00 | 0.00 | 31 | 1016.7 |
| 20260505061639 | 15 | 244 | 9.7 | 14.5 | 0.00 | 0.00 | 0.00 | 31 | 1016.7 |
| 20260505061530 | 15 | 234 | 9.7 | 14.5 | 0.00 | 0.00 | 0.00 | 31 | 1016.8 |
| 20260505061420 | 15 | 220 | 9.7 | 14.5 | 0.00 | 0.00 | 0.00 | 31 | 1016.8 |
| 20260505061314 | 15 | 224 | 9.7 | 12.9 | 0.00 | 0.00 | 0.00 | 30 | 1016.8 |
| 20260505061211 | 15 | 231 | 9.7 | 14.5 | 0.00 | 0.00 | 0.00 | 30 | 1016.8 |
| 20260505061144 | 15 | 234 | 9.7 | 14.5 | 0.00 | 0.00 | 0.00 | 30 | 1016.8 |
| 20260505061023 | 15 | 232 | 9.7 | 14.5 | 0.00 | 0.00 | 0.00 | 30 | 1016.8 |
| 20260505060932 | 15 | 229 | 9.7 | 14.5 | 0.00 | 0.00 | 0.00 | 30 | 1016.8 |
| 20260505060818 | 15 | 238 | 9.7 | 14.5 | 0.00 | 0.00 | 0.00 | 30 | 1016.8 |
| 20260505060727 | 15 | 237 | 9.7 | 16.1 | 0.00 | 0.00 | 0.00 | 30 | 1016.8 |
| 20260505060627 | 15 | 242 | 9.7 | 16.1 | 0.00 | 0.00 | 0.00 | 30 | 1016.8 |
| 20260505060520 | 15 | 242 | 9.7 | 17.7 | 0.00 | 0.00 | 0.00 | 30 | 1016.8 |
| 20260505060413 | 15 | 255 | 9.7 | 17.7 | 0.00 | 0.00 | 0.00 | 30 | 1016.8 |
| 20260505060329 | 15 | 238 | 9.7 | 22.5 | 0.00 | 0.00 | 0.00 | 29 | 1016.8 |
| 20260505060219 | 15 | 249 | 9.7 | 22.5 | 0.00 | 0.00 | 0.00 | 29 | 1016.8 |